| time (UTC) | temp F | wind direction | speed knots | gust knots | rain 1hr in | rain 24hr in | rain mn in | humidity % | barometer mb |
| 20260507153254 | 53 | 45 | 1.7 | 4.3 | 0.00 | 0.00 | 0.00 | 74 | 1016.8 |
| 20260507153100 | 53 | 68 | 1.7 | 3.5 | 0.00 | 0.00 | 0.00 | 76 | 1016.9 |
| 20260507152900 | 53 | 68 | 1.7 | 4.3 | 0.00 | 0.00 | 0.00 | 75 | 1016.8 |
| 20260507152848 | 53 | 68 | 1.7 | 4.3 | 0.00 | 0.00 | 0.00 | 76 | 1016.8 |
| 20260507152704 | 53 | 68 | 1.7 | 4.3 | 0.00 | 0.00 | 0.00 | 76 | 1016.8 |
| 20260507152520 | 53 | 68 | 1.7 | 4.3 | 0.00 | 0.00 | 0.00 | 75 | 1016.8 |
| 20260507152330 | 53 | 90 | 1.7 | 2.6 | 0.00 | 0.00 | 0.00 | 76 | 1016.7 |
| 20260507152148 | 53 | 90 | 1.7 | 3.5 | 0.00 | 0.00 | 0.00 | 76 | 1016.7 |
| 20260507152005 | 53 | 90 | 1.7 | 4.3 | 0.00 | 0.00 | 0.00 | 76 | 1016.7 |
| 20260507151820 | 53 | 90 | 1.7 | 4.3 | 0.00 | 0.00 | 0.00 | 76 | 1016.8 |
| 20260507151629 | 53 | 112 | 1.7 | 4.3 | 0.00 | 0.00 | 0.00 | 76 | 1016.7 |
| 20260507151440 | 53 | 158 | 1.7 | 4.3 | 0.00 | 0.00 | 0.00 | 75 | 1016.7 |
| 20260507151240 | 53 | 90 | 1.7 | 4.3 | 0.00 | 0.00 | 0.00 | 76 | 1016.7 |
| 20260507151052 | 53 | 90 | 1.7 | 2.6 | 0.00 | 0.00 | 0.00 | 76 | 1016.7 |
| 20260507151003 | 53 | 90 | 1.7 | 2.6 | 0.00 | 0.00 | 0.00 | 76 | 1016.7 |
| 20260507150905 | 53 | 90 | 1.7 | 2.6 | 0.00 | 0.00 | 0.00 | 76 | 1016.7 |
| 20260507150715 | 52 | 90 | 1.7 | 5.2 | 0.00 | 0.00 | 0.00 | 77 | 1016.6 |
| 20260507150519 | 52 | 90 | 1.7 | 5.2 | 0.00 | 0.00 | 0.00 | 77 | 1016.7 |
| 20260507150333 | 52 | 90 | 1.7 | 5.2 | 0.00 | 0.00 | 0.00 | 76 | 1016.5 |
| 20260507150145 | 52 | 112 | 1.7 | 3.5 | 0.00 | 0.00 | 0.00 | 77 | 1016.6 |
| 20260507145955 | 52 | 112 | 2.6 | 4.3 | 0.00 | 0.00 | 0.00 | 76 | 1016.5 |
| 20260507145800 | 52 | 112 | 2.6 | 4.3 | 0.00 | 0.00 | 0.00 | 76 | 1016.6 |
| 20260507145602 | 52 | 158 | 2.6 | 4.3 | 0.00 | 0.00 | 0.00 | 76 | 1016.6 |
| 20260507145425 | 53 | 68 | 2.6 | 4.3 | 0.00 | 0.00 | 0.00 | 77 | 1016.5 |
| 20260507145223 | 53 | 68 | 2.6 | 4.3 | 0.00 | 0.00 | 0.00 | 77 | 1016.5 |
| 20260507145055 | 53 | 90 | 2.6 | 5.2 | 0.00 | 0.00 | 0.00 | 76 | 1016.4 |
| 20260507144908 | 53 | 90 | 2.6 | 4.3 | 0.00 | 0.00 | 0.00 | 76 | 1016.5 |
| 20260507144710 | 53 | 68 | 1.7 | 4.3 | 0.00 | 0.00 | 0.00 | 76 | 1016.5 |
| 20260507144535 | 53 | 112 | 1.7 | 4.3 | 0.00 | 0.00 | 0.00 | 75 | 1016.5 |
| 20260507144341 | 53 | 45 | 1.7 | 4.3 | 0.00 | 0.00 | 0.00 | 76 | 1016.5 |
| 20260507144148 | 53 | 90 | 1.7 | 4.3 | 0.00 | 0.00 | 0.00 | 74 | 1016.5 |
| 20260507144005 | 53 | 68 | 0.9 | 4.3 | 0.00 | 0.00 | 0.00 | 74 | 1016.5 |
| 20260507143815 | 53 | 45 | 0.9 | 2.6 | 0.00 | 0.00 | 0.00 | 74 | 1016.5 |
| 20260507143634 | 53 | 45 | 0.9 | 2.6 | 0.00 | 0.00 | 0.00 | 74 | 1016.5 |
| 20260507143438 | 53 | 45 | 0.9 | 2.6 | 0.00 | 0.00 | 0.00 | 74 | 1016.4 |
| 20260507143253 | 53 | 45 | 0.9 | 2.6 | 0.00 | 0.00 | 0.00 | 74 | 1016.5 |
| 20260507143109 | 53 | 45 | 0.9 | 2.6 | 0.00 | 0.00 | 0.00 | 74 | 1016.4 |
| 20260507142918 | 53 | 45 | 0.9 | 4.3 | 0.00 | 0.00 | 0.00 | 73 | 1016.4 |
| 20260507142733 | 53 | 45 | 0.9 | 4.3 | 0.00 | 0.00 | 0.00 | 74 | 1016.4 |
| 20260507142534 | 53 | 22 | 0.9 | 1.7 | 0.00 | 0.00 | 0.00 | 74 | 1016.4 |
| 20260507142340 | 53 | 22 | 0.9 | 3.5 | 0.00 | 0.00 | 0.00 | 73 | 1016.4 |
| 20260507142149 | 53 | 22 | 1.7 | 4.3 | 0.00 | 0.00 | 0.00 | 75 | 1016.4 |
| 20260507141954 | 53 | 22 | 1.7 | 4.3 | 0.00 | 0.00 | 0.00 | 74 | 1016.4 |
| 20260507141855 | 53 | 22 | 1.7 | 4.3 | 0.00 | 0.00 | 0.00 | 74 | 1016.4 |
| 20260507141805 | 53 | 22 | 0.9 | 4.3 | 0.00 | 0.00 | 0.00 | 74 | 1016.5 |
| 20260507141608 | 53 | 0 | 0.9 | 1.7 | 0.00 | 0.00 | 0.00 | 74 | 1016.5 |
| 20260507141425 | 53 | 0 | 0.9 | 1.7 | 0.00 | 0.00 | 0.00 | 75 | 1016.5 |
| 20260507141231 | 53 | 338 | 0.9 | 1.7 | 0.00 | 0.00 | 0.00 | 76 | 1016.4 |
| 20260507141055 | 53 | 338 | 0.9 | 3.5 | 0.00 | 0.00 | 0.00 | 75 | 1016.4 |
| 20260507140855 | 53 | 338 | 0.9 | 3.5 | 0.00 | 0.00 | 0.00 | 76 | 1016.4 |
| 20260507140708 | 53 | 338 | 0.9 | 3.5 | 0.00 | 0.00 | 0.00 | 76 | 1016.4 |
| 20260507140519 | 53 | 338 | 0.9 | 1.7 | 0.00 | 0.00 | 0.00 | 76 | 1016.4 |
| 20260507140325 | 53 | 338 | 0.9 | 1.7 | 0.00 | 0.00 | 0.00 | 75 | 1016.4 |
| 20260507140139 | 53 | 338 | 0.9 | 1.7 | 0.00 | 0.00 | 0.00 | 75 | 1016.4 |
| 20260507140000 | 53 | 338 | 0.9 | 1.7 | 0.00 | 0.00 | 0.00 | 75 | 1016.4 |
| 20260507135820 | 53 | 45 | 0.9 | 1.7 | 0.00 | 0.00 | 0.00 | 75 | 1016.3 |
| 20260507135620 | 53 | 45 | 0.9 | 2.6 | 0.00 | 0.00 | 0.00 | 76 | 1016.3 |
| 20260507135435 | 53 | 45 | 1.7 | 2.6 | 0.00 | 0.00 | 0.00 | 76 | 1016.3 |
| 20260507135245 | 53 | 45 | 1.7 | 2.6 | 0.00 | 0.00 | 0.00 | 76 | 1016.3 |
| 20260507135105 | 53 | 45 | 1.7 | 5.2 | 0.00 | 0.00 | 0.00 | 75 | 1016.3 |
| 20260507134905 | 53 | 45 | 1.7 | 5.2 | 0.00 | 0.00 | 0.00 | 75 | 1016.2 |
| 20260507134710 | 53 | 22 | 1.7 | 2.6 | 0.00 | 0.00 | 0.00 | 74 | 1016.2 |
| 20260507134602 | 53 | 22 | 1.7 | 2.6 | 0.00 | 0.00 | 0.00 | 75 | 1016.2 |
| 20260507134515 | 53 | 68 | 1.7 | 2.6 | 0.00 | 0.00 | 0.00 | 76 | 1016.2 |
| 20260507134314 | 53 | 68 | 2.6 | 4.3 | 0.00 | 0.00 | 0.00 | 76 | 1016.2 |
| 20260507134125 | 53 | 45 | 2.6 | 4.3 | 0.00 | 0.00 | 0.00 | 76 | 1016.2 |
| 20260507133925 | 53 | 22 | 2.6 | 5.2 | 0.00 | 0.00 | 0.00 | 74 | 1016.2 |
| 20260507133744 | 53 | 45 | 2.6 | 5.2 | 0.00 | 0.00 | 0.00 | 74 | 1016.2 |
| 20260507133606 | 53 | 22 | 3.5 | 5.2 | 0.00 | 0.00 | 0.00 | 74 | 1016.2 |
| 20260507133409 | 53 | 45 | 2.6 | 4.3 | 0.00 | 0.00 | 0.00 | 75 | 1016.1 |
| 20260507133210 | 53 | 45 | 3.5 | 5.2 | 0.00 | 0.00 | 0.00 | 75 | 1016.3 |
| 20260507133011 | 53 | 68 | 2.6 | 5.2 | 0.00 | 0.00 | 0.00 | 74 | 1016.2 |
| 20260507132906 | 53 | 68 | 2.6 | 5.2 | 0.00 | 0.00 | 0.00 | 74 | 1016.2 |
| 20260507132820 | 53 | 68 | 1.7 | 5.2 | 0.00 | 0.00 | 0.00 | 73 | 1016.2 |
| 20260507132623 | 53 | 90 | 1.7 | 5.2 | 0.00 | 0.00 | 0.00 | 73 | 1016.2 |
| 20260507132444 | 53 | 90 | 1.7 | 4.3 | 0.00 | 0.00 | 0.00 | 72 | 1016.2 |
| 20260507132245 | 53 | 45 | 1.7 | 5.2 | 0.00 | 0.00 | 0.00 | 73 | 1016.2 |
| 20260507132108 | 53 | 68 | 1.7 | 5.2 | 0.00 | 0.00 | 0.00 | 73 | 1016.1 |
| 20260507131925 | 53 | 90 | 1.7 | 5.2 | 0.00 | 0.00 | 0.00 | 74 | 1016.2 |
| 20260507131735 | 53 | 90 | 1.7 | 5.2 | 0.00 | 0.00 | 0.00 | 74 | 1016.1 |
| 20260507131544 | 53 | 248 | 2.6 | 2.6 | 0.00 | 0.00 | 0.00 | 74 | 1016.1 |
| 20260507131409 | 52 | 68 | 2.6 | 6.1 | 0.00 | 0.00 | 0.00 | 75 | 1016.2 |
| 20260507131302 | 52 | 68 | 2.6 | 6.1 | 0.00 | 0.00 | 0.00 | 75 | 1016.2 |
| 20260507131220 | 52 | 68 | 2.6 | 6.1 | 0.00 | 0.00 | 0.00 | 75 | 1016.2 |
| 20260507131045 | 52 | 90 | 2.6 | 6.1 | 0.00 | 0.00 | 0.00 | 76 | 1016.1 |
| 20260507130907 | 53 | 0 | 3.5 | 6.1 | 0.00 | 0.00 | 0.00 | 75 | 1016.2 |
| 20260507130715 | 53 | 22 | 3.5 | 5.2 | 0.00 | 0.02 | 0.00 | 75 | 1016.1 |
| 20260507130535 | 53 | 45 | 3.5 | 5.2 | 0.00 | 0.02 | 0.00 | 75 | 1016.2 |
| 20260507130353 | 52 | 45 | 2.6 | 4.3 | 0.00 | 0.02 | 0.00 | 74 | 1016.1 |
| 20260507130215 | 52 | 45 | 2.6 | 5.2 | 0.00 | 0.02 | 0.00 | 75 | 1016.1 |
| 20260507130027 | 52 | 45 | 2.6 | 5.2 | 0.00 | 0.02 | 0.00 | 75 | 1016.1 |
| 20260507125840 | 52 | 68 | 1.7 | 5.2 | 0.00 | 0.02 | 0.00 | 76 | 1016.1 |
| 20260507125650 | 52 | 45 | 1.7 | 3.5 | 0.00 | 0.02 | 0.00 | 74 | 1016.2 |
| 20260507125506 | 52 | 22 | 2.6 | 5.2 | 0.00 | 0.02 | 0.00 | 75 | 1016.1 |
| 20260507125407 | 52 | 45 | 2.6 | 5.2 | 0.00 | 0.02 | 0.00 | 76 | 1016.0 |
| 20260507125328 | 51 | 45 | 2.6 | 5.2 | 0.00 | 0.02 | 0.00 | 76 | 1016.0 |
| 20260507125148 | 51 | 45 | 3.5 | 6.1 | 0.00 | 0.02 | 0.00 | 76 | 1016.0 |
| 20260507124955 | 51 | 68 | 3.5 | 6.1 | 0.00 | 0.02 | 0.00 | 78 | 1016.1 |
| 20260507124803 | 52 | 68 | 4.3 | 7.0 | 0.00 | 0.02 | 0.00 | 77 | 1016.0 |
| 20260507124624 | 52 | 68 | 3.5 | 7.0 | 0.00 | 0.02 | 0.00 | 76 | 1016.0 |
| 20260507124440 | 52 | 45 | 3.5 | 7.0 | 0.00 | 0.02 | 0.00 | 76 | 1016.0 |
| 20260507124248 | 52 | 90 | 3.5 | 7.0 | 0.00 | 0.02 | 0.00 | 76 | 1016.0 |
| 20260507124103 | 52 | 68 | 2.6 | 6.1 | 0.00 | 0.02 | 0.00 | 77 | 1016.0 |
| 20260507123905 | 52 | 68 | 2.6 | 6.1 | 0.00 | 0.02 | 0.00 | 75 | 1016.0 |
| 20260507123720 | 52 | 90 | 1.7 | 5.2 | 0.00 | 0.02 | 0.00 | 75 | 1016.0 |
| 20260507123606 | 52 | 22 | 1.7 | 3.5 | 0.00 | 0.02 | 0.00 | 75 | 1016.0 |
| 20260507123525 | 52 | 22 | 1.7 | 3.5 | 0.00 | 0.02 | 0.00 | 76 | 1016.0 |
| 20260507123327 | 52 | 22 | 3.5 | 7.8 | 0.00 | 0.02 | 0.00 | 76 | 1016.0 |
| 20260507123149 | 52 | 22 | 3.5 | 7.8 | 0.00 | 0.02 | 0.00 | 75 | 1016.0 |
| 20260507123004 | 52 | 90 | 3.5 | 8.7 | 0.00 | 0.02 | 0.00 | 76 | 1016.0 |
| 20260507122820 | 51 | 22 | 3.5 | 8.7 | 0.00 | 0.02 | 0.00 | 76 | 1016.0 |
| 20260507122644 | 51 | 90 | 3.5 | 8.7 | 0.00 | 0.02 | 0.00 | 76 | 1015.9 |
| 20260507122445 | 51 | 68 | 2.6 | 7.8 | 0.00 | 0.02 | 0.00 | 76 | 1016.0 |
| 20260507122250 | 51 | 45 | 2.6 | 7.0 | 0.00 | 0.02 | 0.00 | 76 | 1016.0 |
| 20260507122100 | 51 | 45 | 3.5 | 7.0 | 0.00 | 0.02 | 0.00 | 77 | 1016.0 |
| 20260507122033 | 51 | 68 | 3.5 | 5.2 | 0.00 | 0.02 | 0.00 | 77 | 1015.9 |
| 20260507121918 | 51 | 68 | 4.3 | 5.2 | 0.00 | 0.02 | 0.00 | 76 | 1016.0 |
| 20260507121725 | 51 | 68 | 4.3 | 7.0 | 0.00 | 0.02 | 0.00 | 76 | 1015.9 |
| 20260507121545 | 51 | 90 | 4.3 | 7.8 | 0.00 | 0.02 | 0.00 | 78 | 1016.0 |
| 20260507121353 | 51 | 45 | 4.3 | 7.8 | 0.00 | 0.02 | 0.00 | 77 | 1016.0 |
| 20260507121200 | 51 | 90 | 4.3 | 7.8 | 0.00 | 0.02 | 0.00 | 77 | 1016.0 |
| 20260507121007 | 51 | 68 | 3.5 | 8.7 | 0.00 | 0.02 | 0.00 | 76 | 1015.9 |
| 20260507120815 | 51 | 45 | 2.6 | 8.7 | 0.00 | 0.02 | 0.00 | 76 | 1015.9 |
| 20260507120619 | 51 | 68 | 2.6 | 8.7 | 0.00 | 0.02 | 0.00 | 77 | 1015.9 |
| 20260507120445 | 51 | 68 | 2.6 | 4.3 | 0.00 | 0.02 | 0.00 | 78 | 1016.0 |
| 20260507120423 | 51 | 68 | 2.6 | 4.3 | 0.00 | 0.02 | 0.00 | 77 | 1015.9 |
| 20260507120224 | 51 | 68 | 2.6 | 6.1 | 0.00 | 0.02 | 0.00 | 77 | 1015.9 |
| 20260507120040 | 51 | 68 | 3.5 | 6.1 | 0.00 | 0.02 | 0.00 | 77 | 1015.9 |
| 20260507115843 | 51 | 45 | 3.5 | 6.1 | 0.00 | 0.02 | 0.00 | 77 | 1015.9 |
| 20260507115700 | 51 | 90 | 3.5 | 7.0 | 0.00 | 0.02 | 0.00 | 77 | 1015.9 |
| 20260507115515 | 51 | 68 | 3.5 | 7.0 | 0.00 | 0.02 | 0.00 | 77 | 1015.9 |
| 20260507115315 | 51 | 68 | 4.3 | 7.0 | 0.00 | 0.02 | 0.00 | 77 | 1016.0 |
| 20260507115128 | 51 | 90 | 4.3 | 7.0 | 0.00 | 0.02 | 0.00 | 77 | 1015.9 |
| 20260507114935 | 51 | 68 | 3.5 | 7.0 | 0.00 | 0.02 | 0.00 | 77 | 1015.9 |
| 20260507114745 | 51 | 68 | 4.3 | 7.0 | 0.00 | 0.02 | 0.00 | 77 | 1015.9 |
| 20260507114549 | 51 | 45 | 4.3 | 6.1 | 0.00 | 0.02 | 0.00 | 77 | 1015.9 |
| 20260507114356 | 51 | 45 | 4.3 | 7.8 | 0.00 | 0.02 | 0.00 | 76 | 1015.9 |
| 20260507114200 | 50 | 90 | 3.5 | 10.4 | 0.00 | 0.02 | 0.00 | 76 | 1015.8 |
| 20260507114008 | 50 | 90 | 3.5 | 10.4 | 0.00 | 0.02 | 0.00 | 76 | 1015.9 |
| 20260507113820 | 50 | 45 | 3.5 | 8.7 | 0.00 | 0.02 | 0.00 | 77 | 1015.9 |
| 20260507113645 | 50 | 90 | 3.5 | 7.0 | 0.00 | 0.02 | 0.00 | 78 | 1015.8 |
| 20260507113500 | 50 | 68 | 3.5 | 7.0 | 0.00 | 0.02 | 0.00 | 76 | 1015.8 |
| 20260507113320 | 50 | 68 | 3.5 | 5.2 | 0.00 | 0.02 | 0.00 | 77 | 1015.8 |
| 20260507113132 | 50 | 45 | 3.5 | 10.4 | 0.00 | 0.02 | 0.00 | 78 | 1015.9 |
| 20260507112950 | 50 | 90 | 4.3 | 10.4 | 0.00 | 0.02 | 0.00 | 78 | 1015.8 |
| 20260507112808 | 50 | 22 | 4.3 | 10.4 | 0.00 | 0.02 | 0.00 | 78 | 1015.8 |
| 20260507112730 | 50 | 90 | 4.3 | 7.8 | 0.00 | 0.02 | 0.00 | 78 | 1015.8 |
| 20260507112615 | 50 | 112 | 4.3 | 7.8 | 0.00 | 0.02 | 0.00 | 79 | 1015.8 |
| 20260507112435 | 50 | 45 | 3.5 | 7.0 | 0.00 | 0.02 | 0.00 | 78 | 1015.8 |
| 20260507112250 | 50 | 68 | 3.5 | 8.7 | 0.00 | 0.02 | 0.00 | 78 | 1015.8 |
| 20260507112105 | 50 | 68 | 3.5 | 11.3 | 0.00 | 0.02 | 0.00 | 78 | 1015.8 |
| 20260507111905 | 50 | 112 | 3.5 | 11.3 | 0.00 | 0.02 | 0.00 | 78 | 1015.7 |
| 20260507111712 | 50 | 45 | 4.3 | 11.3 | 0.00 | 0.03 | 0.00 | 79 | 1015.8 |
| 20260507111535 | 49 | 22 | 4.3 | 8.7 | 0.00 | 0.03 | 0.00 | 79 | 1015.8 |
| 20260507111333 | 49 | 45 | 4.3 | 9.6 | 0.00 | 0.03 | 0.00 | 79 | 1015.8 |
| 20260507111155 | 49 | 22 | 4.3 | 9.6 | 0.00 | 0.03 | 0.00 | 79 | 1015.7 |
| 20260507111132 | 49 | 112 | 4.3 | 9.6 | 0.00 | 0.03 | 0.00 | 79 | 1015.7 |
| 20260507111015 | 49 | 22 | 4.3 | 9.6 | 0.00 | 0.03 | 0.00 | 80 | 1015.8 |
| 20260507110829 | 49 | 90 | 3.5 | 8.7 | 0.00 | 0.03 | 0.00 | 80 | 1015.7 |
| 20260507110639 | 49 | 22 | 3.5 | 5.2 | 0.00 | 0.03 | 0.00 | 80 | 1015.8 |
| 20260507110440 | 49 | 68 | 3.5 | 6.1 | 0.00 | 0.03 | 0.00 | 81 | 1015.8 |
| 20260507110300 | 49 | 45 | 3.5 | 7.0 | 0.00 | 0.03 | 0.00 | 81 | 1015.8 |
| 20260507110100 | 49 | 45 | 3.5 | 7.0 | 0.00 | 0.03 | 0.00 | 81 | 1015.7 |
| 20260507105925 | 49 | 45 | 4.3 | 7.8 | 0.00 | 0.03 | 0.00 | 81 | 1015.7 |
| 20260507105746 | 49 | 45 | 4.3 | 8.7 | 0.00 | 0.03 | 0.00 | 81 | 1015.8 |
| 20260507105546 | 49 | 68 | 3.5 | 8.7 | 0.00 | 0.03 | 0.00 | 81 | 1015.8 |
| 20260507105455 | 49 | 0 | 3.5 | 8.7 | 0.00 | 0.03 | 0.00 | 81 | 1015.7 |
| 20260507105348 | 49 | 68 | 3.5 | 8.7 | 0.00 | 0.03 | 0.00 | 81 | 1015.8 |
| 20260507105200 | 49 | 338 | 3.5 | 7.0 | 0.00 | 0.03 | 0.00 | 81 | 1015.8 |
| 20260507105002 | 49 | 22 | 3.5 | 7.0 | 0.00 | 0.03 | 0.00 | 82 | 1015.7 |
| 20260507104824 | 49 | 22 | 3.5 | 5.2 | 0.00 | 0.03 | 0.00 | 82 | 1015.7 |
| 20260507104629 | 49 | 68 | 2.6 | 5.2 | 0.00 | 0.03 | 0.00 | 82 | 1015.7 |
| 20260507104445 | 49 | 68 | 2.6 | 8.7 | 0.00 | 0.03 | 0.00 | 81 | 1015.6 |
| 20260507104249 | 49 | 112 | 2.6 | 8.7 | 0.00 | 0.03 | 0.00 | 82 | 1015.6 |
| 20260507104109 | 49 | 45 | 2.6 | 8.7 | 0.00 | 0.03 | 0.00 | 82 | 1015.7 |
| 20260507103925 | 48 | 45 | 2.6 | 5.2 | 0.00 | 0.03 | 0.00 | 83 | 1015.7 |
| 20260507103729 | 48 | 90 | 3.5 | 7.8 | 0.00 | 0.03 | 0.00 | 83 | 1015.7 |
| 20260507103603 | 48 | 90 | 3.5 | 7.8 | 0.00 | 0.03 | 0.00 | 83 | 1015.7 |
| 20260507103535 | 48 | 90 | 3.5 | 7.8 | 0.00 | 0.03 | 0.00 | 83 | 1015.7 |
| 20260507103347 | 48 | 68 | 2.6 | 7.8 | 0.00 | 0.05 | 0.00 | 82 | 1015.6 |
| 20260507103211 | 48 | 0 | 2.6 | 8.7 | 0.00 | 0.05 | 0.00 | 83 | 1015.7 |
| 20260507103036 | 48 | 22 | 2.6 | 8.7 | 0.00 | 0.05 | 0.00 | 83 | 1015.6 |
| 20260507102845 | 48 | 22 | 3.5 | 8.7 | 0.00 | 0.05 | 0.00 | 83 | 1015.6 |
| 20260507102645 | 48 | 0 | 2.6 | 5.2 | 0.00 | 0.05 | 0.00 | 83 | 1015.6 |
| 20260507102452 | 48 | 45 | 2.6 | 5.2 | 0.00 | 0.05 | 0.00 | 83 | 1015.6 |
| 20260507102258 | 48 | 22 | 2.6 | 7.8 | 0.00 | 0.06 | 0.00 | 83 | 1015.6 |
| 20260507102115 | 48 | 68 | 2.6 | 7.8 | 0.00 | 0.06 | 0.00 | 84 | 1015.6 |
| 20260507101935 | 47 | 22 | 2.6 | 5.2 | 0.00 | 0.06 | 0.00 | 84 | 1015.5 |
| 20260507101750 | 47 | 22 | 3.5 | 5.2 | 0.00 | 0.06 | 0.00 | 85 | 1015.6 |
| 20260507101706 | 47 | 45 | 3.5 | 5.2 | 0.00 | 0.06 | 0.00 | 85 | 1015.6 |
| 20260507101615 | 47 | 45 | 3.5 | 6.1 | 0.00 | 0.06 | 0.00 | 84 | 1015.6 |
| 20260507101415 | 47 | 22 | 3.5 | 8.7 | 0.00 | 0.06 | 0.00 | 85 | 1015.6 |
| 20260507101227 | 47 | 45 | 3.5 | 8.7 | 0.00 | 0.06 | 0.00 | 85 | 1015.5 |
| 20260507101042 | 47 | 45 | 3.5 | 8.7 | 0.00 | 0.08 | 0.00 | 85 | 1015.5 |
| 20260507100849 | 48 | 22 | 3.5 | 7.0 | 0.00 | 0.08 | 0.00 | 86 | 1015.5 |
| 20260507100700 | 48 | 90 | 3.5 | 6.1 | 0.00 | 0.08 | 0.00 | 86 | 1015.5 |
| 20260507100509 | 48 | 22 | 3.5 | 7.0 | 0.00 | 0.08 | 0.00 | 86 | 1015.4 |
| 20260507100315 | 48 | 68 | 3.5 | 7.0 | 0.00 | 0.08 | 0.00 | 86 | 1015.5 |
| 20260507100129 | 48 | 68 | 3.5 | 7.8 | 0.00 | 0.08 | 0.00 | 85 | 1015.4 |
| 20260507100032 | 48 | 90 | 2.6 | 7.8 | 0.00 | 0.09 | 0.00 | 86 | 1015.4 |
| 20260507095935 | 48 | 90 | 2.6 | 7.8 | 0.00 | 0.09 | 0.00 | 86 | 1015.4 |
| 20260507095735 | 48 | 68 | 2.6 | 7.8 | 0.00 | 0.09 | 0.00 | 86 | 1015.4 |
| 20260507095550 | 47 | 45 | 1.7 | 5.2 | 0.00 | 0.09 | 0.00 | 87 | 1015.3 |
| 20260507095409 | 47 | 45 | 2.6 | 4.3 | 0.00 | 0.11 | 0.00 | 87 | 1015.2 |
| 20260507095220 | 47 | 45 | 3.5 | 4.3 | 0.00 | 0.11 | 0.00 | 87 | 1015.2 |
| 20260507095040 | 47 | 68 | 3.5 | 4.3 | 0.00 | 0.11 | 0.00 | 87 | 1015.2 |
| 20260507094848 | 47 | 0 | 3.5 | 6.1 | 0.00 | 0.11 | 0.00 | 87 | 1015.2 |
| 20260507094705 | 47 | 22 | 3.5 | 7.0 | 0.00 | 0.11 | 0.00 | 88 | 1015.2 |
| 20260507094510 | 47 | 22 | 3.5 | 7.0 | 0.00 | 0.11 | 0.00 | 87 | 1015.1 |
| 20260507094327 | 47 | 22 | 2.6 | 7.0 | 0.00 | 0.13 | 0.00 | 87 | 1015.2 |
| 20260507094149 | 47 | 45 | 2.6 | 7.0 | 0.00 | 0.13 | 0.00 | 87 | 1015.1 |
| 20260507094006 | 47 | 45 | 1.7 | 4.3 | 0.00 | 0.13 | 0.00 | 88 | 1015.1 |
| 20260507093814 | 47 | 22 | 1.7 | 4.3 | 0.00 | 0.13 | 0.00 | 88 | 1015.0 |
| 20260507093629 | 47 | 45 | 1.7 | 4.3 | 0.00 | 0.14 | 0.00 | 88 | 1015.0 |
| 20260507093430 | 47 | 90 | 3.5 | 6.1 | 0.00 | 0.14 | 0.00 | 88 | 1015.0 |
| 20260507093249 | 47 | 22 | 3.5 | 6.1 | 0.00 | 0.16 | 0.00 | 88 | 1015.0 |
| 20260507093049 | 47 | 68 | 4.3 | 6.1 | 0.00 | 0.16 | 0.00 | 88 | 1015.0 |
| 20260507092905 | 47 | 45 | 4.3 | 7.8 | 0.00 | 0.16 | 0.00 | 88 | 1015.0 |
| 20260507092751 | 47 | 45 | 4.3 | 10.4 | 0.00 | 0.16 | 0.00 | 89 | 1015.0 |
| 20260507092709 | 47 | 68 | 4.3 | 10.4 | 0.00 | 0.17 | 0.00 | 88 | 1015.0 |
| 20260507092514 | 47 | 45 | 4.3 | 10.4 | 0.00 | 0.17 | 0.00 | 88 | 1015.0 |
| 20260507092334 | 47 | 0 | 4.3 | 10.4 | 0.00 | 0.17 | 0.00 | 88 | 1015.0 |
| 20260507092148 | 47 | 0 | 3.5 | 6.1 | 0.00 | 0.19 | 0.00 | 88 | 1014.9 |
| 20260507092010 | 48 | 22 | 3.5 | 6.1 | 0.00 | 0.19 | 0.00 | 88 | 1014.9 |
| 20260507091812 | 48 | 45 | 4.3 | 6.1 | 0.00 | 0.19 | 0.00 | 87 | 1014.8 |
| 20260507091620 | 48 | 45 | 4.3 | 6.1 | 0.00 | 0.19 | 0.00 | 87 | 1014.9 |
| 20260507091441 | 48 | 135 | 3.5 | 8.7 | 0.00 | 0.19 | 0.00 | 87 | 1014.8 |
| 20260507091255 | 48 | 0 | 3.5 | 8.7 | 0.00 | 0.19 | 0.00 | 88 | 1014.7 |
| 20260507091106 | 48 | 22 | 3.5 | 8.7 | 0.00 | 0.20 | 0.00 | 87 | 1014.8 |
| 20260507091021 | 48 | 22 | 3.5 | 7.8 | 0.00 | 0.20 | 0.00 | 86 | 1014.7 |
| 20260507090914 | 48 | 22 | 3.5 | 7.8 | 0.00 | 0.20 | 0.00 | 85 | 1014.6 |
| 20260507090720 | 48 | 338 | 3.5 | 6.1 | 0.00 | 0.20 | 0.00 | 84 | 1014.6 |
| 20260507090531 | 48 | 45 | 3.5 | 6.1 | 0.00 | 0.22 | 0.00 | 84 | 1014.6 |
| 20260507090344 | 48 | 22 | 3.5 | 6.1 | 0.00 | 0.22 | 0.00 | 84 | 1014.6 |
| 20260507090205 | 48 | 45 | 4.3 | 8.7 | 0.00 | 0.22 | 0.00 | 84 | 1014.6 |
| 20260507090026 | 48 | 45 | 4.3 | 8.7 | 0.00 | 0.25 | 0.00 | 84 | 1014.5 |
| 20260507085836 | 48 | 45 | 3.5 | 8.7 | 0.00 | 0.25 | 0.00 | 83 | 1014.6 |
| 20260507085645 | 48 | 248 | 3.5 | 6.1 | 0.00 | 0.25 | 0.00 | 83 | 1014.5 |
| 20260507085449 | 48 | 22 | 3.5 | 6.1 | 0.00 | 0.27 | 0.00 | 83 | 1014.5 |
| 20260507085426 | 48 | 45 | 3.5 | 6.1 | 0.00 | 0.27 | 0.00 | 83 | 1014.5 |
| 20260507085249 | 48 | 45 | 3.5 | 7.0 | 0.00 | 0.27 | 0.00 | 83 | 1014.4 |
| 20260507085109 | 48 | 22 | 2.6 | 7.0 | 0.00 | 0.27 | 0.00 | 84 | 1014.5 |
| 20260507084913 | 48 | 68 | 2.6 | 7.0 | 0.00 | 0.30 | 0.00 | 83 | 1014.5 |
| 20260507084739 | 48 | 68 | 2.6 | 6.1 | 0.00 | 0.30 | 0.00 | 83 | 1014.5 |
| 20260507084545 | 48 | 68 | 2.6 | 5.2 | 0.00 | 0.30 | 0.00 | 83 | 1014.5 |
| 20260507084353 | 48 | 22 | 3.5 | 6.1 | 0.00 | 0.35 | 0.00 | 82 | 1014.3 |
| 20260507084200 | 48 | 22 | 3.5 | 8.7 | 0.00 | 0.35 | 0.00 | 82 | 1014.4 |
| 20260507084020 | 48 | 315 | 3.5 | 8.7 | 0.00 | 0.35 | 0.00 | 83 | 1014.3 |
| 20260507083825 | 48 | 22 | 3.5 | 8.7 | 0.00 | 0.36 | 0.00 | 83 | 1014.3 |
| 20260507083812 | 48 | 315 | 3.5 | 8.7 | 0.00 | 0.36 | 0.00 | 83 | 1014.2 |
| 20260507083645 | 48 | 68 | 3.5 | 8.7 | 0.00 | 0.36 | 0.00 | 82 | 1014.3 |
| 20260507083455 | 48 | 22 | 2.6 | 7.8 | 0.00 | 0.39 | 0.00 | 83 | 1014.3 |
| 20260507083302 | 48 | 22 | 2.6 | 7.0 | 0.00 | 0.39 | 0.00 | 83 | 1014.3 |
| 20260507083111 | 48 | 90 | 3.5 | 7.0 | 0.00 | 0.39 | 0.00 | 84 | 1014.2 |
| 20260507082929 | 48 | 0 | 3.5 | 7.0 | 0.00 | 0.41 | 0.00 | 83 | 1014.2 |
| 20260507082749 | 48 | 68 | 3.5 | 7.0 | 0.00 | 0.41 | 0.00 | 84 | 1014.2 |
| 20260507082605 | 48 | 68 | 3.5 | 6.1 | 0.00 | 0.41 | 0.00 | 84 | 1014.2 |
| 20260507082420 | 48 | 45 | 3.5 | 6.1 | 0.00 | 0.44 | 0.00 | 84 | 1014.1 |
| 20260507082240 | 48 | 22 | 3.5 | 7.0 | 0.00 | 0.44 | 0.00 | 84 | 1014.2 |
| 20260507082048 | 48 | 315 | 2.6 | 9.6 | 0.00 | 0.44 | 0.00 | 85 | 1014.2 |
| 20260507081856 | 48 | 0 | 2.6 | 9.6 | 0.00 | 0.47 | 0.00 | 85 | 1014.1 |
| 20260507081704 | 48 | 225 | 1.7 | 9.6 | 0.00 | 0.47 | 0.00 | 85 | 1014.1 |
| 20260507081515 | 48 | 68 | 1.7 | 3.5 | 0.00 | 0.47 | 0.00 | 85 | 1014.0 |
| 20260507081340 | 47 | 68 | 2.6 | 6.1 | 0.00 | 0.50 | 0.00 | 85 | 1014.1 |
| 20260507081200 | 47 | 68 | 2.6 | 6.1 | 0.00 | 0.50 | 0.00 | 85 | 1014.0 |
| 20260507081009 | 47 | 90 | 3.5 | 6.1 | 0.00 | 0.50 | 0.00 | 85 | 1014.0 |
| 20260507080829 | 47 | 22 | 2.6 | 5.2 | 0.00 | 0.52 | 0.00 | 85 | 1014.0 |
| 20260507080636 | 47 | 90 | 3.5 | 5.2 | 0.00 | 0.52 | 0.00 | 85 | 1014.0 |
| 20260507080453 | 47 | 68 | 3.5 | 4.3 | 0.00 | 0.52 | 0.00 | 85 | 1014.0 |
| 20260507080346 | 47 | 292 | 3.5 | 4.3 | 0.00 | 0.54 | 0.00 | 86 | 1013.9 |
| 20260507080255 | 47 | 22 | 3.5 | 4.3 | 0.00 | 0.54 | 0.00 | 86 | 1014.0 |
| 20260507080105 | 47 | 68 | 3.5 | 6.1 | 0.00 | 0.54 | 0.00 | 85 | 1014.0 |
| 20260507075925 | 47 | 90 | 3.5 | 6.1 | 0.00 | 0.54 | 0.00 | 85 | 1013.9 |
| 20260507075748 | 47 | 45 | 3.5 | 8.7 | 0.00 | 0.58 | 0.00 | 85 | 1014.0 |
| 20260507075600 | 47 | 22 | 3.5 | 4.3 | 0.00 | 0.58 | 0.00 | 86 | 1013.9 |
| 20260507075400 | 47 | 68 | 3.5 | 7.0 | 0.00 | 0.58 | 0.00 | 86 | 1013.9 |
| 20260507075205 | 47 | 45 | 4.3 | 7.0 | 0.00 | 0.60 | 0.00 | 86 | 1013.9 |
| 20260507075005 | 47 | 68 | 3.5 | 7.0 | 0.00 | 0.60 | 0.00 | 86 | 1013.9 |
| 20260507074807 | 47 | 68 | 3.5 | 8.7 | 0.00 | 0.60 | 0.00 | 86 | 1013.8 |
| 20260507074630 | 47 | 0 | 3.5 | 8.7 | 0.00 | 0.60 | 0.00 | 85 | 1013.8 |
| 20260507074455 | 47 | 0 | 3.5 | 8.7 | 0.00 | 0.60 | 0.00 | 85 | 1013.8 |
| 20260507074315 | 47 | 315 | 3.5 | 7.0 | 0.00 | 0.60 | 0.00 | 85 | 1013.8 |
| 20260507074125 | 47 | 0 | 3.5 | 7.0 | 0.00 | 0.61 | 0.00 | 85 | 1013.8 |
| 20260507073937 | 47 | 45 | 4.3 | 11.3 | 0.00 | 0.61 | 0.00 | 85 | 1013.7 |
| 20260507073800 | 47 | 90 | 3.5 | 11.3 | 0.00 | 0.61 | 0.00 | 85 | 1013.6 |
| 20260507073615 | 47 | 45 | 4.3 | 11.3 | 0.00 | 0.61 | 0.00 | 85 | 1013.7 |
| 20260507073423 | 47 | 68 | 4.3 | 11.3 | 0.00 | 0.61 | 0.00 | 85 | 1013.8 |
| 20260507073231 | 47 | 90 | 4.3 | 7.8 | 0.00 | 0.61 | 0.00 | 85 | 1013.7 |
| 20260507073050 | 47 | 90 | 4.3 | 7.0 | 0.00 | 0.61 | 0.00 | 85 | 1013.7 |
| 20260507073038 | 47 | 90 | 4.3 | 6.1 | 0.00 | 0.61 | 0.00 | 85 | 1013.7 |
| 20260507072855 | 47 | 45 | 4.3 | 8.7 | 0.00 | 0.61 | 0.00 | 85 | 1013.6 |
| 20260507072714 | 47 | 90 | 5.2 | 8.7 | 0.00 | 0.61 | 0.00 | 85 | 1013.7 |
| 20260507072515 | 47 | 45 | 5.2 | 8.7 | 0.00 | 0.61 | 0.00 | 85 | 1013.6 |
| 20260507072315 | 47 | 68 | 5.2 | 9.6 | 0.00 | 0.61 | 0.00 | 84 | 1013.5 |
| 20260507072125 | 47 | 315 | 5.2 | 9.6 | 0.00 | 0.61 | 0.00 | 85 | 1013.6 |
| 20260507071948 | 47 | 22 | 5.2 | 9.6 | 0.00 | 0.61 | 0.00 | 84 | 1013.5 |
| 20260507071758 | 47 | 68 | 5.2 | 10.4 | 0.00 | 0.61 | 0.00 | 84 | 1013.5 |
| 20260507071605 | 47 | 22 | 5.2 | 10.4 | 0.00 | 0.61 | 0.00 | 84 | 1013.5 |
| 20260507071415 | 47 | 112 | 5.2 | 9.6 | 0.00 | 0.61 | 0.00 | 84 | 1013.5 |
| 20260507071236 | 47 | 270 | 4.3 | 8.7 | 0.00 | 0.61 | 0.00 | 85 | 1013.4 |
| 20260507071218 | 47 | 270 | 4.3 | 8.7 | 0.00 | 0.61 | 0.00 | 84 | 1013.6 |
| 20260507071033 | 47 | 45 | 5.2 | 11.3 | 0.00 | 0.63 | 0.00 | 85 | 1013.4 |
| 20260507070847 | 47 | 90 | 4.3 | 11.3 | 0.00 | 0.63 | 0.00 | 85 | 1013.4 |
| 20260507070655 | 47 | 315 | 5.2 | 11.3 | 0.00 | 0.63 | 0.00 | 85 | 1013.3 |
| 20260507070455 | 47 | 90 | 5.2 | 8.7 | 0.00 | 0.63 | 0.00 | 85 | 1013.4 |
| 20260507070255 | 47 | 68 | 4.3 | 7.0 | 0.00 | 0.63 | 0.00 | 85 | 1013.3 |
| 20260507070109 | 47 | 90 | 4.3 | 7.0 | 0.00 | 0.63 | 0.00 | 85 | 1013.4 |
| 20260507065909 | 47 | 338 | 4.3 | 6.1 | 0.00 | 0.63 | 0.00 | 86 | 1013.3 |
| 20260507065725 | 47 | 338 | 4.3 | 10.4 | 0.00 | 0.63 | 0.00 | 86 | 1013.4 |
| 20260507065532 | 47 | 45 | 4.3 | 10.4 | 0.00 | 0.63 | 0.00 | 86 | 1013.3 |
| 20260507065349 | 47 | 68 | 4.3 | 10.4 | 0.00 | 0.63 | 0.00 | 86 | 1013.3 |
| 20260507065205 | 47 | 22 | 4.3 | 9.6 | 0.00 | 0.63 | 0.00 | 85 | 1013.3 |
| 20260507065018 | 47 | 22 | 3.5 | 7.8 | 0.00 | 0.63 | 0.00 | 85 | 1013.2 |
| 20260507064830 | 47 | 22 | 3.5 | 6.1 | 0.00 | 0.63 | 0.00 | 85 | 1013.3 |
| 20260507064645 | 47 | 22 | 3.5 | 4.3 | 0.00 | 0.63 | 0.00 | 85 | 1013.3 |
| 20260507064445 | 47 | 45 | 3.5 | 10.4 | 0.00 | 0.63 | 0.00 | 86 | 1013.2 |
| 20260507064247 | 47 | 45 | 3.5 | 10.4 | 0.00 | 0.63 | 0.00 | 86 | 1013.3 |
| 20260507064100 | 47 | 0 | 3.5 | 10.4 | 0.00 | 0.63 | 0.00 | 86 | 1013.2 |
| 20260507063920 | 47 | 22 | 3.5 | 7.8 | 0.00 | 0.65 | 0.00 | 86 | 1013.2 |
| 20260507063837 | 47 | 292 | 3.5 | 7.8 | 0.00 | 0.65 | 0.00 | 86 | 1013.2 |
| 20260507063728 | 47 | 22 | 3.5 | 7.8 | 0.00 | 0.65 | 0.00 | 86 | 1013.2 |
| 20260507063535 | 47 | 22 | 2.6 | 4.3 | 0.00 | 0.65 | 0.00 | 86 | 1013.3 |
| 20260507063347 | 47 | 22 | 2.6 | 5.2 | 0.00 | 0.65 | 0.00 | 86 | 1013.4 |
| 20260507063200 | 46 | 22 | 2.6 | 5.2 | 0.00 | 0.65 | 0.00 | 86 | 1013.2 |
| 20260507063001 | 46 | 68 | 2.6 | 5.2 | 0.00 | 0.65 | 0.00 | 86 | 1013.3 |
| 20260507062825 | 46 | 22 | 2.6 | 4.3 | 0.00 | 0.65 | 0.00 | 87 | 1013.3 |
| 20260507062637 | 46 | 90 | 3.5 | 4.3 | 0.00 | 0.65 | 0.00 | 86 | 1013.2 |
| 20260507062440 | 46 | 22 | 3.5 | 6.1 | 0.00 | 0.65 | 0.00 | 87 | 1013.1 |
| 20260507062300 | 46 | 68 | 3.5 | 6.1 | 0.00 | 0.65 | 0.00 | 87 | 1013.2 |
| 20260507062151 | 46 | 68 | 4.3 | 8.7 | 0.00 | 0.65 | 0.00 | 87 | 1013.2 |
| 20260507062113 | 46 | 292 | 3.5 | 8.7 | 0.00 | 0.65 | 0.00 | 87 | 1013.2 |
| 20260507061937 | 46 | 22 | 3.5 | 8.7 | 0.00 | 0.65 | 0.00 | 87 | 1013.2 |
| 20260507061754 | 46 | 68 | 3.5 | 8.7 | 0.00 | 0.65 | 0.00 | 87 | 1013.1 |
| 20260507061607 | 46 | 45 | 3.5 | 7.8 | 0.00 | 0.65 | 0.00 | 88 | 1013.2 |
| 20260507061428 | 46 | 45 | 3.5 | 7.8 | 0.00 | 0.65 | 0.00 | 88 | 1013.1 |
| 20260507061234 | 46 | 45 | 3.5 | 7.8 | 0.00 | 0.66 | 0.00 | 88 | 1013.0 |
| 20260507061048 | 46 | 45 | 3.5 | 9.6 | 0.00 | 0.66 | 0.00 | 88 | 1013.0 |
| 20260507060855 | 46 | 22 | 3.5 | 9.6 | 0.00 | 0.66 | 0.00 | 88 | 1013.0 |
| 20260507060714 | 46 | 45 | 3.5 | 9.6 | 0.00 | 0.66 | 0.00 | 88 | 1012.9 |
| 20260507060525 | 46 | 68 | 3.5 | 8.7 | 0.00 | 0.66 | 0.00 | 88 | 1012.9 |
| 20260507060345 | 46 | 338 | 3.5 | 8.7 | 0.00 | 0.66 | 0.00 | 88 | 1012.9 |
| 20260507060255 | 46 | 45 | 3.5 | 8.7 | 0.00 | 0.68 | 0.00 | 88 | 1012.9 |
| 20260507060155 | 46 | 22 | 3.5 | 8.7 | 0.00 | 0.68 | 0.00 | 88 | 1012.9 |
| 20260507055955 | 46 | 90 | 3.5 | 5.2 | 0.00 | 0.68 | 0.00 | 88 | 1012.9 |
| 20260507055812 | 46 | 22 | 3.5 | 9.6 | 0.00 | 0.68 | 0.00 | 88 | 1012.9 |
| 20260507055618 | 46 | 0 | 4.3 | 9.6 | 0.00 | 0.68 | 0.00 | 88 | 1012.9 |
| 20260507055435 | 46 | 45 | 5.2 | 9.6 | 0.00 | 0.68 | 0.00 | 87 | 1012.8 |
| 20260507055250 | 46 | 68 | 4.3 | 9.6 | 0.00 | 0.68 | 0.00 | 88 | 1012.9 |
| 20260507055105 | 46 | 68 | 4.3 | 11.3 | 0.00 | 0.68 | 0.00 | 88 | 1012.8 |
| 20260507054909 | 46 | 45 | 4.3 | 11.3 | 0.00 | 0.68 | 0.00 | 88 | 1012.8 |
| 20260507054715 | 46 | 68 | 3.5 | 11.3 | 0.00 | 0.68 | 0.00 | 88 | 1012.9 |
| 20260507054648 | 46 | 270 | 3.5 | 11.3 | 0.00 | 0.68 | 0.00 | 88 | 1012.9 |
| 20260507054521 | 46 | 0 | 3.5 | 8.7 | 0.00 | 0.68 | 0.00 | 88 | 1012.8 |
| 20260507054336 | 46 | 45 | 3.5 | 6.1 | 0.00 | 0.68 | 0.00 | 88 | 1012.8 |
| 20260507054150 | 46 | 68 | 3.5 | 8.7 | 0.00 | 0.68 | 0.00 | 88 | 1012.8 |
| 20260507054008 | 46 | 90 | 3.5 | 4.3 | 0.00 | 0.69 | 0.00 | 89 | 1012.8 |
| 20260507053820 | 46 | 68 | 3.5 | 8.7 | 0.00 | 0.69 | 0.00 | 89 | 1012.8 |
| 20260507053628 | 46 | 90 | 4.3 | 8.7 | 0.00 | 0.69 | 0.00 | 89 | 1012.7 |
| 20260507053448 | 46 | 0 | 3.5 | 7.8 | 0.00 | 0.69 | 0.00 | 89 | 1012.6 |
| 20260507053304 | 46 | 22 | 3.5 | 7.8 | 0.00 | 0.69 | 0.00 | 89 | 1012.8 |
| 20260507053105 | 46 | 90 | 4.3 | 9.6 | 0.00 | 0.69 | 0.00 | 89 | 1012.7 |
| 20260507053042 | 46 | 45 | 4.3 | 9.6 | 0.00 | 0.69 | 0.00 | 89 | 1012.6 |
| 20260507052920 | 46 | 68 | 4.3 | 9.6 | 0.00 | 0.71 | 0.00 | 89 | 1012.6 |
| 20260507052740 | 46 | 45 | 4.3 | 9.6 | 0.00 | 0.71 | 0.00 | 89 | 1012.6 |
| 20260507052600 | 46 | 338 | 4.3 | 8.7 | 0.00 | 0.71 | 0.00 | 89 | 1012.6 |
| 20260507052418 | 46 | 45 | 4.3 | 8.7 | 0.00 | 0.71 | 0.00 | 89 | 1012.5 |
| 20260507052220 | 46 | 135 | 4.3 | 9.6 | 0.00 | 0.71 | 0.00 | 90 | 1012.5 |
| 20260507052040 | 46 | 68 | 4.3 | 9.6 | 0.00 | 0.71 | 0.00 | 90 | 1012.5 |
| 20260507051900 | 46 | 68 | 4.3 | 9.6 | 0.00 | 0.71 | 0.00 | 89 | 1012.5 |
| 20260507051715 | 46 | 68 | 3.5 | 7.8 | 0.00 | 0.71 | 0.00 | 89 | 1012.5 |
| 20260507051520 | 46 | 22 | 3.5 | 7.8 | 0.00 | 0.71 | 0.00 | 89 | 1012.6 |
| 20260507051325 | 46 | 90 | 2.6 | 7.8 | 0.00 | 0.72 | 0.00 | 90 | 1012.4 |
| 20260507051215 | 46 | 22 | 2.6 | 6.1 | 0.00 | 0.72 | 0.00 | 89 | 1012.6 |
| 20260507051137 | 46 | 90 | 2.6 | 5.2 | 0.00 | 0.72 | 0.00 | 90 | 1012.6 |
| 20260507050940 | 46 | 45 | 3.5 | 5.2 | 0.00 | 0.72 | 0.00 | 89 | 1012.4 |
| 20260507050745 | 46 | 45 | 3.5 | 7.8 | 0.00 | 0.72 | 0.00 | 89 | 1012.4 |
| 20260507050600 | 46 | 45 | 3.5 | 7.8 | 0.00 | 0.72 | 0.00 | 90 | 1012.5 |
| 20260507050415 | 46 | 90 | 3.5 | 7.8 | 0.00 | 0.72 | 0.00 | 89 | 1012.4 |
| 20260507050229 | 46 | 22 | 3.5 | 7.0 | 0.00 | 0.74 | 0.00 | 89 | 1012.6 |
| 20260507050035 | 46 | 22 | 2.6 | 7.0 | 0.00 | 0.74 | 0.00 | 89 | 1012.4 |
| 20260507045845 | 46 | 68 | 2.6 | 6.1 | 0.00 | 0.74 | 0.00 | 89 | 1012.4 |
| 20260507045645 | 46 | 22 | 3.5 | 8.7 | 0.00 | 0.76 | 0.00 | 89 | 1012.4 |
| 20260507045532 | 46 | 45 | 3.5 | 8.7 | 0.00 | 0.76 | 0.00 | 89 | 1012.4 |
| 20260507045504 | 46 | 45 | 3.5 | 8.7 | 0.00 | 0.76 | 0.00 | 89 | 1012.4 |
| 20260507045325 | 46 | 22 | 3.5 | 8.7 | 0.00 | 0.76 | 0.00 | 89 | 1012.3 |
| 20260507045140 | 46 | 45 | 3.5 | 6.1 | 0.00 | 0.77 | 0.00 | 89 | 1012.3 |
| 20260507044945 | 46 | 22 | 3.5 | 6.1 | 0.00 | 0.77 | 0.00 | 89 | 1012.3 |
| 20260507044757 | 46 | 22 | 3.5 | 6.1 | 0.00 | 0.77 | 0.00 | 90 | 1012.2 |
| 20260507044618 | 46 | 112 | 3.5 | 5.2 | 0.00 | 0.79 | 0.00 | 90 | 1012.2 |
| 20260507044439 | 46 | 22 | 3.5 | 11.3 | 0.00 | 0.79 | 0.00 | 90 | 1012.2 |
| 20260507044300 | 46 | 68 | 3.5 | 11.3 | 0.00 | 0.79 | 0.00 | 90 | 1012.2 |
| 20260507044100 | 46 | 90 | 3.5 | 11.3 | 0.00 | 0.80 | 0.00 | 90 | 1012.0 |
| 20260507043901 | 46 | 45 | 4.3 | 8.7 | 0.00 | 0.80 | 0.00 | 90 | 1012.2 |
| 20260507043715 | 46 | 68 | 4.3 | 7.8 | 0.00 | 0.82 | 0.00 | 90 | 1012.1 |
| 20260507043649 | 46 | 22 | 4.3 | 7.8 | 0.00 | 0.82 | 0.00 | 90 | 1012.1 |
| 20260507043520 | 46 | 315 | 4.3 | 7.8 | 0.00 | 0.82 | 0.00 | 90 | 1012.0 |
| 20260507043323 | 46 | 0 | 5.2 | 8.7 | 0.00 | 0.82 | 0.00 | 90 | 1012.1 |
| 20260507043132 | 46 | 22 | 5.2 | 8.7 | 0.00 | 0.83 | 0.00 | 90 | 1012.0 |
| 20260507042933 | 46 | 0 | 4.3 | 7.8 | 0.00 | 0.83 | 0.00 | 90 | 1012.0 |
| 20260507042755 | 46 | 22 | 4.3 | 7.8 | 0.00 | 0.83 | 0.00 | 90 | 1011.9 |
| 20260507042600 | 46 | 0 | 3.5 | 7.8 | 0.00 | 0.85 | 0.00 | 90 | 1011.9 |
| 20260507042408 | 46 | 22 | 3.5 | 7.8 | 0.00 | 0.85 | 0.00 | 90 | 1012.0 |
| 20260507042215 | 46 | 45 | 2.6 | 6.1 | 0.00 | 0.85 | 0.00 | 90 | 1012.0 |
| 20260507042019 | 46 | 68 | 2.6 | 6.1 | 0.00 | 0.87 | 0.00 | 90 | 1012.1 |
| 20260507041926 | 46 | 90 | 2.6 | 6.1 | 0.00 | 0.87 | 0.00 | 90 | 1012.0 |
| 20260507041835 | 46 | 292 | 2.6 | 6.1 | 0.00 | 0.87 | 0.00 | 91 | 1012.1 |
| 20260507041637 | 46 | 68 | 2.6 | 5.2 | 0.00 | 0.87 | 0.00 | 90 | 1012.1 |
| 20260507041455 | 46 | 22 | 2.6 | 6.1 | 0.00 | 0.88 | 0.00 | 91 | 1012.0 |
| 20260507041315 | 46 | 45 | 2.6 | 6.1 | 0.00 | 0.88 | 0.00 | 91 | 1012.0 |
| 20260507041133 | 46 | 68 | 2.6 | 6.1 | 0.00 | 0.88 | 0.00 | 91 | 1012.0 |
| 20260507040935 | 46 | 22 | 2.6 | 5.2 | 0.00 | 0.90 | 0.00 | 91 | 1012.0 |
| 20260507040740 | 46 | 45 | 1.7 | 4.3 | 0.00 | 0.90 | 0.00 | 91 | 1012.0 |
| 20260507040600 | 46 | 22 | 1.7 | 4.3 | 0.00 | 0.90 | 0.00 | 91 | 1012.0 |
| 20260507040405 | 46 | 68 | 1.7 | 4.3 | 0.00 | 0.91 | 0.00 | 91 | 1011.9 |
| 20260507040230 | 46 | 45 | 1.7 | 4.3 | 0.00 | 0.91 | 0.00 | 90 | 1011.8 |
| 20260507040057 | 46 | 45 | 1.7 | 4.3 | 0.00 | 0.91 | 0.00 | 90 | 1011.9 |
| 20260507040045 | 46 | 45 | 1.7 | 4.3 | 0.00 | 0.91 | 0.00 | 90 | 1011.9 |
| 20260507035900 | 46 | 90 | 2.6 | 3.5 | 0.00 | 0.93 | 0.00 | 90 | 1011.9 |
| 20260507035720 | 46 | 90 | 2.6 | 4.3 | 0.00 | 0.93 | 0.00 | 90 | 1011.9 |
| 20260507035537 | 46 | 90 | 2.6 | 3.5 | 0.00 | 0.93 | 0.00 | 90 | 1011.8 |
| 20260507035350 | 46 | 90 | 3.5 | 5.2 | 0.00 | 0.94 | 0.00 | 90 | 1011.7 |
| 20260507035200 | 46 | 45 | 3.5 | 7.0 | 0.00 | 0.94 | 0.00 | 90 | 1011.6 |
| 20260507035005 | 46 | 22 | 3.5 | 7.0 | 0.00 | 0.94 | 0.00 | 90 | 1011.5 |
| 20260507034804 | 46 | 90 | 2.6 | 5.2 | 0.00 | 0.96 | 0.00 | 90 | 1011.6 |
| 20260507034628 | 46 | 45 | 2.6 | 5.2 | 0.00 | 0.96 | 0.00 | 90 | 1011.6 |
| 20260507034515 | 46 | 22 | 2.6 | 5.2 | 0.00 | 0.96 | 0.00 | 90 | 1011.6 |
| 20260507034450 | 46 | 45 | 2.6 | 4.3 | 0.00 | 0.96 | 0.00 | 90 | 1011.5 |
| 20260507034305 | 46 | 45 | 1.7 | 4.3 | 0.00 | 0.98 | 0.00 | 90 | 1011.6 |
| 20260507034128 | 46 | 45 | 1.7 | 8.7 | 0.00 | 0.98 | 0.00 | 90 | 1011.6 |
| 20260507033940 | 46 | 45 | 2.6 | 8.7 | 0.00 | 0.98 | 0.00 | 90 | 1011.5 |
| 20260507033755 | 46 | 45 | 2.6 | 8.7 | 0.00 | 0.98 | 0.00 | 90 | 1011.6 |
| 20260507033615 | 46 | 68 | 2.6 | 4.3 | 0.00 | 0.98 | 0.00 | 90 | 1011.6 |
| 20260507033425 | 46 | 45 | 2.6 | 5.2 | 0.00 | 0.98 | 0.00 | 90 | 1011.6 |
| 20260507033245 | 46 | 90 | 3.5 | 7.0 | 0.00 | 0.98 | 0.00 | 90 | 1011.6 |
| 20260507033049 | 46 | 68 | 3.5 | 7.0 | 0.00 | 0.98 | 0.00 | 90 | 1011.5 |
| 20260507032900 | 46 | 45 | 4.3 | 7.0 | 0.00 | 0.98 | 0.00 | 91 | 1011.5 |
| 20260507032854 | 46 | 45 | 3.5 | 7.0 | 0.00 | 0.99 | 0.00 | 91 | 1011.5 |
| 20260507032705 | 46 | 68 | 4.3 | 7.8 | 0.00 | 0.99 | 0.00 | 91 | 1011.5 |
| 20260507032509 | 46 | 22 | 4.3 | 7.8 | 0.00 | 0.99 | 0.00 | 90 | 1011.5 |
| 20260507032325 | 46 | 68 | 5.2 | 7.8 | 0.00 | 1.01 | 0.00 | 90 | 1011.5 |
| 20260507032129 | 46 | 22 | 5.2 | 6.1 | 0.00 | 1.01 | 0.00 | 91 | 1011.6 |
| 20260507031929 | 46 | 68 | 4.3 | 8.7 | 0.00 | 1.01 | 0.00 | 91 | 1011.6 |
| 20260507031753 | 46 | 68 | 4.3 | 10.4 | 0.00 | 1.01 | 0.00 | 91 | 1011.6 |
| 20260507031555 | 46 | 68 | 4.3 | 10.4 | 0.00 | 1.01 | 0.00 | 91 | 1011.5 |
| 20260507031415 | 46 | 68 | 3.5 | 9.6 | 0.00 | 1.01 | 0.00 | 90 | 1011.4 |
| 20260507031225 | 46 | 22 | 3.5 | 11.3 | 0.00 | 1.01 | 0.00 | 90 | 1011.5 |
| 20260507031040 | 46 | 68 | 4.3 | 11.3 | 0.00 | 1.02 | 0.00 | 91 | 1011.4 |
| 20260507031021 | 46 | 68 | 4.3 | 11.3 | 0.00 | 1.02 | 0.00 | 91 | 1011.3 |
| 20260507030900 | 46 | 112 | 4.3 | 11.3 | 0.00 | 1.02 | 0.00 | 90 | 1011.4 |
| 20260507030712 | 46 | 68 | 4.3 | 9.6 | 0.00 | 1.02 | 0.00 | 91 | 1011.4 |
| 20260507030525 | 46 | 68 | 4.3 | 9.6 | 0.00 | 1.02 | 0.00 | 91 | 1011.4 |
| 20260507030345 | 46 | 90 | 4.3 | 9.6 | 0.00 | 1.02 | 0.00 | 90 | 1011.4 |
| 20260507030148 | 46 | 22 | 3.5 | 6.1 | 0.00 | 1.02 | 0.00 | 91 | 1011.4 |
| 20260507030000 | 46 | 68 | 3.5 | 9.6 | 0.00 | 1.04 | 0.00 | 91 | 1011.5 |
| 20260507025805 | 46 | 90 | 4.3 | 9.6 | 0.00 | 1.04 | 0.00 | 91 | 1011.4 |
| 20260507025620 | 46 | 22 | 3.5 | 9.6 | 0.00 | 1.04 | 0.00 | 91 | 1011.4 |
| 20260507025508 | 46 | 45 | 3.5 | 7.0 | 0.00 | 1.04 | 0.00 | 91 | 1011.4 |
| 20260507025425 | 46 | 68 | 3.5 | 7.0 | 0.00 | 1.04 | 0.00 | 91 | 1011.4 |
| 20260507025238 | 46 | 22 | 3.5 | 5.2 | 0.00 | 1.04 | 0.00 | 91 | 1011.4 |
| 20260507025057 | 46 | 22 | 3.5 | 5.2 | 0.00 | 1.04 | 0.00 | 91 | 1011.4 |
| 20260507024858 | 46 | 22 | 3.5 | 5.2 | 0.00 | 1.04 | 0.00 | 91 | 1011.4 |
| 20260507024712 | 46 | 315 | 4.3 | 6.1 | 0.00 | 1.04 | 0.00 | 91 | 1011.4 |
| 20260507024525 | 46 | 22 | 5.2 | 8.7 | 0.00 | 1.04 | 0.00 | 91 | 1011.3 |
| 20260507024328 | 46 | 22 | 4.3 | 8.7 | 0.00 | 1.06 | 0.00 | 91 | 1011.3 |
| 20260507024142 | 46 | 68 | 4.3 | 9.6 | 0.00 | 1.06 | 0.00 | 91 | 1011.2 |
| 20260507024000 | 46 | 68 | 3.5 | 9.6 | 0.00 | 1.06 | 0.00 | 91 | 1011.2 |
| 20260507023809 | 46 | 22 | 3.5 | 9.6 | 0.00 | 1.06 | 0.00 | 91 | 1011.2 |
| 20260507023642 | 46 | 68 | 3.5 | 7.0 | 0.00 | 1.06 | 0.00 | 91 | 1011.2 |
| 20260507023608 | 46 | 68 | 2.6 | 7.0 | 0.00 | 1.06 | 0.00 | 91 | 1011.3 |
| 20260507023417 | 46 | 90 | 2.6 | 6.1 | 0.00 | 1.06 | 0.00 | 91 | 1011.2 |
| 20260507023225 | 46 | 338 | 3.5 | 8.7 | 0.00 | 1.06 | 0.00 | 91 | 1011.2 |
| 20260507023044 | 46 | 22 | 3.5 | 8.7 | 0.00 | 1.06 | 0.00 | 91 | 1011.2 |
| 20260507022900 | 45 | 68 | 3.5 | 8.7 | 0.00 | 1.06 | 0.00 | 91 | 1011.2 |
| 20260507022709 | 46 | 45 | 2.6 | 5.2 | 0.00 | 1.06 | 0.00 | 91 | 1011.3 |
| 20260507022520 | 46 | 90 | 2.6 | 5.2 | 0.00 | 1.06 | 0.00 | 91 | 1011.1 |
| 20260507022325 | 46 | 112 | 2.6 | 4.3 | 0.00 | 1.06 | 0.00 | 91 | 1011.2 |
| 20260507022140 | 46 | 45 | 2.6 | 5.2 | 0.00 | 1.06 | 0.00 | 91 | 1011.2 |
| 20260507021955 | 46 | 45 | 2.6 | 5.2 | 0.00 | 1.06 | 0.00 | 91 | 1011.2 |
| 20260507021831 | 46 | 90 | 2.6 | 7.8 | 0.00 | 1.06 | 0.00 | 91 | 1011.2 |
| 20260507021805 | 46 | 68 | 2.6 | 7.8 | 0.00 | 1.06 | 0.00 | 91 | 1011.2 |
| 20260507021623 | 46 | 22 | 2.6 | 7.8 | 0.00 | 1.06 | 0.00 | 91 | 1011.2 |
| 20260507021429 | 46 | 45 | 2.6 | 7.8 | 0.00 | 1.07 | 0.00 | 91 | 1011.2 |
| 20260507021240 | 46 | 22 | 2.6 | 5.2 | 0.00 | 1.07 | 0.00 | 91 | 1011.2 |
| 20260507021048 | 46 | 22 | 2.6 | 5.2 | 0.00 | 1.07 | 0.00 | 91 | 1011.2 |
| 20260507020900 | 46 | 292 | 3.5 | 5.2 | 0.00 | 1.07 | 0.00 | 91 | 1011.1 |
| 20260507020700 | 46 | 45 | 3.5 | 6.1 | 0.00 | 1.07 | 0.00 | 91 | 1011.2 |
| 20260507020514 | 46 | 22 | 3.5 | 8.7 | 0.00 | 1.07 | 0.00 | 91 | 1011.0 |
| 20260507020323 | 46 | 45 | 2.6 | 8.7 | 0.00 | 1.07 | 0.00 | 91 | 1011.0 |
| 20260507020203 | 46 | 90 | 2.6 | 8.7 | 0.00 | 1.07 | 0.00 | 91 | 1010.9 |
| 20260507020125 | 46 | 68 | 2.6 | 8.7 | 0.00 | 1.07 | 0.00 | 91 | 1010.9 |
| 20260507015929 | 46 | 45 | 2.6 | 7.8 | 0.00 | 1.07 | 0.00 | 91 | 1010.9 |
| 20260507015740 | 46 | 22 | 2.6 | 7.8 | 0.00 | 1.07 | 0.00 | 91 | 1011.0 |
| 20260507015540 | 46 | 68 | 2.6 | 4.3 | 0.00 | 1.07 | 0.00 | 91 | 1011.1 |
| 20260507015345 | 46 | 22 | 3.5 | 6.1 | 0.00 | 1.07 | 0.00 | 91 | 1011.0 |
| 20260507015145 | 46 | 45 | 3.5 | 6.1 | 0.00 | 1.07 | 0.00 | 91 | 1011.0 |
| 20260507014946 | 46 | 0 | 2.6 | 6.1 | 0.00 | 1.09 | 0.00 | 91 | 1010.9 |
| 20260507014749 | 46 | 22 | 2.6 | 5.2 | 0.00 | 1.09 | 0.00 | 91 | 1011.0 |
| 20260507014651 | 46 | 22 | 2.6 | 5.2 | 0.00 | 1.09 | 0.00 | 91 | 1011.0 |
| 20260507014555 | 46 | 68 | 1.7 | 5.2 | 0.00 | 1.09 | 0.00 | 91 | 1011.0 |
| 20260507014406 | 46 | 68 | 2.6 | 5.2 | 0.00 | 1.09 | 0.00 | 91 | 1011.1 |
| 20260507014210 | 46 | 45 | 2.6 | 5.2 | 0.00 | 1.09 | 0.00 | 91 | 1011.2 |
| 20260507014015 | 46 | 45 | 1.7 | 4.3 | 0.00 | 1.09 | 0.00 | 91 | 1011.1 |
| 20260507013829 | 46 | 45 | 2.6 | 5.2 | 0.00 | 1.09 | 0.00 | 90 | 1011.2 |
| 20260507013639 | 45 | 68 | 2.6 | 5.2 | 0.00 | 1.09 | 0.00 | 90 | 1011.1 |
| 20260507013504 | 45 | 22 | 2.6 | 5.2 | 0.00 | 1.09 | 0.00 | 90 | 1011.2 |
| 20260507013323 | 45 | 0 | 2.6 | 5.2 | 0.00 | 1.09 | 0.00 | 90 | 1011.1 |
| 20260507013140 | 45 | 45 | 3.5 | 5.2 | 0.00 | 1.09 | 0.00 | 90 | 1011.3 |
| 20260507012955 | 45 | 45 | 2.6 | 6.1 | 0.00 | 1.09 | 0.00 | 90 | 1011.2 |
| 20260507012915 | 45 | 22 | 2.6 | 6.1 | 0.00 | 1.09 | 0.00 | 90 | 1011.1 |
| 20260507012757 | 45 | 22 | 2.6 | 6.1 | 0.00 | 1.09 | 0.00 | 90 | 1011.2 |
| 20260507012608 | 45 | 90 | 2.6 | 6.1 | 0.00 | 1.09 | 0.00 | 90 | 1011.2 |
| 20260507012409 | 46 | 68 | 2.6 | 5.2 | 0.00 | 1.09 | 0.00 | 90 | 1011.2 |
| 20260507012225 | 46 | 68 | 2.6 | 4.3 | 0.00 | 1.09 | 0.00 | 90 | 1011.1 |
| 20260507012035 | 45 | 22 | 1.7 | 4.3 | 0.00 | 1.09 | 0.00 | 90 | 1011.1 |
| 20260507011840 | 45 | 22 | 2.6 | 4.3 | 0.00 | 1.09 | 0.00 | 90 | 1011.1 |
| 20260507011641 | 45 | 292 | 2.6 | 7.8 | 0.00 | 1.09 | 0.00 | 90 | 1011.2 |
| 20260507011500 | 45 | 22 | 2.6 | 7.8 | 0.00 | 1.09 | 0.00 | 90 | 1011.0 |
| 20260507011404 | 45 | 22 | 3.5 | 7.8 | 0.00 | 1.09 | 0.00 | 90 | 1011.1 |
| 20260507011315 | 45 | 45 | 2.6 | 7.8 | 0.00 | 1.09 | 0.00 | 90 | 1011.1 |
| 20260507011129 | 45 | 45 | 2.6 | 5.2 | 0.00 | 1.09 | 0.00 | 90 | 1011.0 |
| 20260507010943 | 45 | 45 | 3.5 | 6.1 | 0.00 | 1.09 | 0.00 | 90 | 1011.0 |
| 20260507010745 | 45 | 22 | 3.5 | 6.1 | 0.00 | 1.09 | 0.00 | 90 | 1011.0 |
| 20260507010555 | 45 | 22 | 3.5 | 6.1 | 0.00 | 1.09 | 0.00 | 90 | 1011.1 |
| 20260507010418 | 45 | 22 | 2.6 | 5.2 | 0.00 | 1.09 | 0.00 | 90 | 1011.0 |
| 20260507010234 | 45 | 68 | 2.6 | 5.2 | 0.00 | 1.09 | 0.00 | 90 | 1010.9 |
| 20260507010055 | 45 | 112 | 1.7 | 5.2 | 0.00 | 1.09 | 0.00 | 90 | 1010.9 |
| 20260507005859 | 45 | 68 | 2.6 | 5.2 | 0.00 | 1.09 | 0.00 | 90 | 1010.9 |
| 20260507005811 | 45 | 22 | 2.6 | 5.2 | 0.00 | 1.09 | 0.00 | 90 | 1010.8 |
| 20260507005700 | 45 | 338 | 2.6 | 5.2 | 0.00 | 1.09 | 0.00 | 91 | 1010.9 |
| 20260507005505 | 45 | 68 | 2.6 | 4.3 | 0.00 | 1.09 | 0.00 | 91 | 1010.8 |
| 20260507005315 | 45 | 22 | 2.6 | 5.2 | 0.00 | 1.09 | 0.00 | 91 | 1010.8 |
| 20260507004952 | 45 | 45 | 3.5 | 5.2 | 0.00 | 1.09 | 0.00 | 91 | 1010.7 |
| 20260507004753 | 45 | 22 | 2.6 | 5.2 | 0.00 | 1.09 | 0.00 | 91 | 1010.8 |
| 20260507004600 | 45 | 45 | 2.6 | 5.2 | 0.00 | 1.09 | 0.00 | 91 | 1010.8 |
| 20260507004414 | 45 | 22 | 3.5 | 5.2 | 0.00 | 1.09 | 0.00 | 91 | 1010.7 |
| 20260507004240 | 45 | 22 | 3.5 | 5.2 | 0.00 | 1.09 | 0.00 | 90 | 1010.8 |
| 20260507004049 | 45 | 22 | 3.5 | 7.0 | 0.00 | 1.09 | 0.00 | 90 | 1010.7 |
| 20260507004045 | 45 | 68 | 3.5 | 7.0 | 0.00 | 1.09 | 0.00 | 90 | 1010.7 |
| 20260507003904 | 45 | 45 | 3.5 | 7.0 | 0.00 | 1.09 | 0.00 | 90 | 1010.7 |
| 20260507003726 | 45 | 22 | 4.3 | 7.0 | 0.00 | 1.09 | 0.00 | 90 | 1010.7 |
| 20260507003530 | 45 | 22 | 4.3 | 6.1 | 0.00 | 1.09 | 0.00 | 90 | 1010.7 |
| 20260507003345 | 45 | 68 | 4.3 | 7.0 | 0.00 | 1.09 | 0.00 | 90 | 1010.6 |
| 20260507003149 | 45 | 45 | 4.3 | 8.7 | 0.00 | 1.09 | 0.00 | 91 | 1010.6 |
| 20260507003005 | 45 | 22 | 4.3 | 8.7 | 0.00 | 1.09 | 0.00 | 90 | 1010.5 |
| 20260507002818 | 45 | 0 | 3.5 | 7.8 | 0.00 | 1.09 | 0.00 | 91 | 1010.5 |
| 20260507002620 | 45 | 45 | 3.5 | 7.0 | 0.00 | 1.09 | 0.00 | 91 | 1010.5 |
| 20260507002422 | 45 | 22 | 3.5 | 7.0 | 0.00 | 1.09 | 0.00 | 91 | 1010.5 |
| 20260507002420 | 45 | 45 | 3.5 | 7.0 | 0.00 | 1.09 | 0.00 | 91 | 1010.5 |
| 20260507002238 | 45 | 68 | 3.5 | 7.0 | 0.00 | 1.09 | 0.00 | 91 | 1010.5 |
| 20260507002100 | 45 | 22 | 3.5 | 7.0 | 0.00 | 1.09 | 0.00 | 91 | 1010.5 |
| 20260507001915 | 45 | 68 | 4.3 | 9.6 | 0.00 | 1.09 | 0.00 | 90 | 1010.5 |
| 20260507001720 | 45 | 0 | 4.3 | 9.6 | 0.00 | 1.09 | 0.00 | 90 | 1010.5 |
| 20260507001525 | 45 | 68 | 4.3 | 11.3 | 0.00 | 1.09 | 0.00 | 90 | 1010.5 |
| 20260507001326 | 45 | 45 | 4.3 | 11.3 | 0.00 | 1.09 | 0.00 | 90 | 1010.5 |
| 20260507001144 | 46 | 68 | 5.2 | 11.3 | 0.00 | 1.09 | 0.00 | 90 | 1010.5 |
| 20260507001005 | 46 | 22 | 5.2 | 7.0 | 0.00 | 1.09 | 0.00 | 90 | 1010.5 |
| 20260507000805 | 46 | 22 | 6.1 | 7.0 | 0.00 | 1.09 | 0.00 | 90 | 1010.6 |
| 20260507000740 | 46 | 22 | 6.1 | 7.0 | 0.00 | 1.09 | 0.00 | 90 | 1010.5 |
| 20260507000610 | 46 | 45 | 6.1 | 7.0 | 0.00 | 1.09 | 0.00 | 91 | 1010.5 |
| 20260507000415 | 46 | 45 | 6.1 | 18.2 | 0.00 | 1.09 | 0.00 | 91 | 1010.6 |
| 20260507000227 | 46 | 22 | 7.0 | 18.2 | 0.00 | 1.09 | 0.00 | 91 | 1010.6 |
| 20260507000035 | 46 | 45 | 7.0 | 18.2 | 0.00 | 1.09 | 0.00 | 91 | 1010.6 |
| 20260506235840 | 46 | 112 | 5.2 | 14.8 | 0.00 | 1.09 | 0.00 | 91 | 1010.5 |
| 20260506235658 | 46 | 112 | 5.2 | 14.8 | 0.00 | 1.09 | 0.00 | 92 | 1010.5 |
| 20260506235500 | 46 | 45 | 5.2 | 13.0 | 0.00 | 1.09 | 0.00 | 92 | 1010.4 |
| 20260506235318 | 46 | 22 | 3.5 | 13.0 | 0.00 | 1.09 | 0.00 | 92 | 1010.4 |
| 20260506235125 | 46 | 68 | 3.5 | 8.7 | 0.00 | 1.09 | 0.00 | 92 | 1010.5 |
| 20260506235022 | 46 | 112 | 2.6 | 8.7 | 0.00 | 1.09 | 0.00 | 93 | 1010.4 |
| 20260506234938 | 46 | 338 | 2.6 | 5.2 | 0.00 | 1.09 | 0.00 | 92 | 1010.4 |
| 20260506234745 | 46 | 22 | 2.6 | 5.2 | 0.00 | 1.09 | 0.00 | 92 | 1010.5 |
| 20260506234600 | 46 | 45 | 2.6 | 6.1 | 0.00 | 1.09 | 0.00 | 92 | 1010.4 |
| 20260506234402 | 46 | 45 | 2.6 | 6.1 | 0.00 | 1.09 | 0.00 | 93 | 1010.4 |
| 20260506234215 | 46 | 22 | 2.6 | 6.1 | 0.00 | 1.09 | 0.00 | 92 | 1010.5 |
| 20260506234038 | 46 | 22 | 2.6 | 6.1 | 0.00 | 1.09 | 0.00 | 92 | 1010.5 |
| 20260506233844 | 46 | 22 | 2.6 | 4.3 | 0.00 | 1.09 | 0.00 | 92 | 1010.5 |
| 20260506233655 | 47 | 22 | 3.5 | 5.2 | 0.00 | 1.09 | 0.00 | 92 | 1010.5 |
| 20260506233508 | 47 | 22 | 3.5 | 7.0 | 0.00 | 1.09 | 0.00 | 92 | 1010.6 |
| 20260506233312 | 47 | 68 | 3.5 | 7.0 | 0.00 | 1.09 | 0.00 | 92 | 1010.5 |
| 20260506233217 | 47 | 68 | 3.5 | 7.8 | 0.00 | 1.09 | 0.00 | 92 | 1010.4 |
| 20260506233115 | 47 | 22 | 3.5 | 7.8 | 0.00 | 1.09 | 0.00 | 92 | 1010.5 |
| 20260506232935 | 47 | 45 | 2.6 | 7.8 | 0.00 | 1.09 | 0.00 | 92 | 1010.4 |
| 20260506232738 | 47 | 22 | 2.6 | 7.0 | 0.00 | 1.09 | 0.00 | 92 | 1010.4 |
| 20260506232558 | 47 | 22 | 2.6 | 7.0 | 0.00 | 1.09 | 0.00 | 92 | 1010.4 |
| 20260506232418 | 47 | 22 | 3.5 | 7.0 | 0.00 | 1.09 | 0.00 | 92 | 1010.5 |
| 20260506232225 | 47 | 68 | 3.5 | 7.0 | 0.00 | 1.09 | 0.00 | 92 | 1010.4 |
| 20260506232040 | 47 | 22 | 4.3 | 6.1 | 0.00 | 1.09 | 0.00 | 92 | 1010.5 |
| 20260506231844 | 47 | 22 | 5.2 | 9.6 | 0.00 | 1.09 | 0.00 | 92 | 1010.4 |
| 20260506231700 | 47 | 68 | 5.2 | 9.6 | 0.00 | 1.09 | 0.00 | 92 | 1010.4 |
| 20260506231530 | 47 | 68 | 5.2 | 9.6 | 0.00 | 1.09 | 0.00 | 91 | 1010.3 |
| 20260506231515 | 47 | 68 | 5.2 | 9.6 | 0.00 | 1.09 | 0.00 | 91 | 1010.3 |
| 20260506231335 | 47 | 22 | 5.2 | 9.6 | 0.00 | 1.09 | 0.00 | 92 | 1010.3 |
| 20260506231145 | 48 | 45 | 4.3 | 11.3 | 0.00 | 1.09 | 0.00 | 91 | 1010.4 |
| 20260506231005 | 48 | 112 | 3.5 | 11.3 | 0.00 | 1.09 | 0.00 | 92 | 1010.4 |
| 20260506230807 | 48 | 68 | 2.6 | 7.8 | 0.00 | 1.09 | 0.00 | 92 | 1010.4 |
| 20260506230610 | 48 | 22 | 2.6 | 7.8 | 0.00 | 1.09 | 0.00 | 92 | 1010.4 |
| 20260506230431 | 48 | 22 | 2.6 | 7.8 | 0.00 | 1.09 | 0.00 | 92 | 1010.4 |
| 20260506230238 | 48 | 45 | 2.6 | 5.2 | 0.00 | 1.09 | 0.00 | 92 | 1010.3 |
| 20260506230100 | 48 | 68 | 2.6 | 5.2 | 0.00 | 1.09 | 0.00 | 92 | 1010.2 |
| 20260506230022 | 48 | 90 | 2.6 | 5.2 | 0.00 | 1.09 | 0.00 | 92 | 1010.3 |
| 20260506225915 | 48 | 45 | 2.6 | 4.3 | 0.00 | 1.09 | 0.00 | 92 | 1010.3 |
| 20260506225735 | 48 | 45 | 2.6 | 4.3 | 0.00 | 1.09 | 0.00 | 92 | 1010.3 |
| 20260506225547 | 48 | 90 | 2.6 | 4.3 | 0.00 | 1.09 | 0.00 | 92 | 1010.2 |
| 20260506225348 | 48 | 22 | 2.6 | 5.2 | 0.00 | 1.09 | 0.00 | 92 | 1010.2 |
| 20260506225158 | 48 | 22 | 2.6 | 5.2 | 0.00 | 1.09 | 0.00 | 92 | 1010.1 |
| 20260506225003 | 48 | 22 | 3.5 | 4.3 | 0.00 | 1.09 | 0.00 | 92 | 1010.1 |
| 20260506224822 | 48 | 22 | 3.5 | 5.2 | 0.00 | 1.09 | 0.00 | 92 | 1010.1 |
| 20260506224645 | 48 | 90 | 3.5 | 6.1 | 0.00 | 1.09 | 0.00 | 92 | 1010.1 |
| 20260506224442 | 49 | 45 | 3.5 | 8.7 | 0.00 | 1.09 | 0.00 | 92 | 1010.0 |
| 20260506224248 | 49 | 68 | 4.3 | 8.7 | 0.00 | 1.09 | 0.00 | 92 | 1009.9 |
| 20260506224237 | 49 | 45 | 4.3 | 8.7 | 0.00 | 1.09 | 0.00 | 91 | 1009.9 |
| 20260506224108 | 49 | 22 | 3.5 | 8.7 | 0.00 | 1.09 | 0.00 | 92 | 1009.9 |
| 20260506223915 | 49 | 68 | 3.5 | 6.1 | 0.00 | 1.09 | 0.00 | 92 | 1010.0 |
| 20260506223735 | 49 | 0 | 2.6 | 7.0 | 0.00 | 1.09 | 0.00 | 92 | 1009.8 |
| 20260506223555 | 49 | 68 | 2.6 | 7.0 | 0.00 | 1.09 | 0.00 | 92 | 1009.9 |
| 20260506223351 | 49 | 292 | 2.6 | 7.0 | 0.00 | 1.09 | 0.00 | 92 | 1009.8 |
| 20260506223210 | 49 | 225 | 1.7 | 6.1 | 0.00 | 1.09 | 0.00 | 92 | 1009.8 |
| 20260506223015 | 50 | 225 | 2.6 | 6.1 | 0.00 | 1.09 | 0.00 | 92 | 1009.8 |
| 20260506222819 | 50 | 22 | 2.6 | 6.1 | 0.00 | 1.09 | 0.00 | 92 | 1009.8 |
| 20260506222630 | 50 | 22 | 2.6 | 4.3 | 0.00 | 1.09 | 0.00 | 92 | 1009.8 |
| 20260506222600 | 50 | 22 | 2.6 | 4.3 | 0.00 | 1.09 | 0.00 | 92 | 1009.9 |
| 20260506222435 | 50 | 22 | 2.6 | 7.0 | 0.00 | 1.09 | 0.00 | 92 | 1009.8 |
| 20260506222235 | 50 | 22 | 2.6 | 7.0 | 0.00 | 1.09 | 0.00 | 92 | 1009.9 |
| 20260506222045 | 50 | 22 | 2.6 | 7.0 | 0.00 | 1.09 | 0.00 | 92 | 1009.8 |
| 20260506221855 | 50 | 45 | 2.6 | 6.1 | 0.00 | 1.09 | 0.00 | 92 | 1009.9 |
| 20260506221715 | 50 | 22 | 1.7 | 4.3 | 0.00 | 1.09 | 0.00 | 92 | 1009.8 |
| 20260506221538 | 50 | 22 | 1.7 | 4.3 | 0.00 | 1.09 | 0.00 | 92 | 1009.8 |
| 20260506221340 | 50 | 22 | 1.7 | 4.3 | 0.00 | 1.09 | 0.00 | 92 | 1009.8 |
| 20260506221145 | 50 | 22 | 1.7 | 4.3 | 0.00 | 1.09 | 0.00 | 92 | 1009.7 |
| 20260506221005 | 50 | 45 | 2.6 | 4.3 | 0.00 | 1.09 | 0.00 | 92 | 1009.7 |
| 20260506220813 | 50 | 112 | 2.6 | 4.3 | 0.00 | 1.09 | 0.00 | 92 | 1009.7 |
| 20260506220725 | 50 | 112 | 3.5 | 4.3 | 0.00 | 1.09 | 0.00 | 92 | 1009.8 |
| 20260506220628 | 50 | 0 | 3.5 | 5.2 | 0.00 | 1.09 | 0.00 | 92 | 1009.8 |
| 20260506220448 | 50 | 292 | 3.5 | 7.0 | 0.00 | 1.09 | 0.00 | 92 | 1009.7 |
| 20260506220258 | 50 | 68 | 3.5 | 7.0 | 0.00 | 1.09 | 0.00 | 92 | 1009.8 |
| 20260506220120 | 50 | 45 | 3.5 | 7.8 | 0.00 | 1.09 | 0.00 | 92 | 1009.7 |
| 20260506215925 | 50 | 22 | 3.5 | 7.8 | 0.00 | 1.09 | 1.09 | 92 | 1009.7 |
| 20260506215734 | 50 | 22 | 3.5 | 7.8 | 0.00 | 1.09 | 1.09 | 92 | 1009.7 |
| 20260506215545 | 50 | 45 | 2.6 | 5.2 | 0.00 | 1.09 | 1.09 | 92 | 1009.7 |
| 20260506215345 | 50 | 22 | 2.6 | 6.1 | 0.00 | 1.09 | 1.09 | 92 | 1009.8 |
| 20260506215200 | 50 | 22 | 2.6 | 6.1 | 0.00 | 1.09 | 1.09 | 92 | 1009.8 |
| 20260506215018 | 50 | 22 | 2.6 | 6.1 | 0.00 | 1.09 | 1.09 | 92 | 1009.9 |
| 20260506214836 | 50 | 22 | 2.6 | 6.1 | 0.00 | 1.09 | 1.09 | 92 | 1009.8 |
| 20260506214658 | 50 | 45 | 1.7 | 3.5 | 0.00 | 1.09 | 1.09 | 92 | 1009.9 |
| 20260506214507 | 50 | 22 | 1.7 | 3.5 | 0.00 | 1.09 | 1.09 | 92 | 1009.8 |
| 20260506214328 | 50 | 22 | 1.7 | 4.3 | 0.00 | 1.09 | 1.09 | 92 | 1009.8 |
| 20260506214134 | 50 | 45 | 1.7 | 5.2 | 0.00 | 1.09 | 1.09 | 92 | 1009.8 |
| 20260506213935 | 50 | 45 | 1.7 | 5.2 | 0.00 | 1.09 | 1.09 | 92 | 1009.8 |
| 20260506213758 | 50 | 22 | 1.7 | 5.2 | 0.00 | 1.09 | 1.09 | 92 | 1009.7 |
| 20260506213617 | 50 | 22 | 1.7 | 5.2 | 0.00 | 1.09 | 1.09 | 92 | 1009.7 |
| 20260506213435 | 50 | 22 | 2.6 | 5.2 | 0.00 | 1.09 | 1.09 | 92 | 1009.6 |
| 20260506213255 | 50 | 45 | 2.6 | 5.2 | 0.00 | 1.09 | 1.09 | 92 | 1009.6 |
| 20260506213108 | 50 | 22 | 2.6 | 5.2 | 0.00 | 1.09 | 1.09 | 92 | 1009.6 |
| 20260506212915 | 50 | 22 | 3.5 | 5.2 | 0.00 | 1.09 | 1.09 | 92 | 1009.6 |
| 20260506212715 | 50 | 68 | 2.6 | 7.0 | 0.00 | 1.09 | 1.09 | 92 | 1009.5 |
| 20260506212520 | 51 | 68 | 2.6 | 7.0 | 0.00 | 1.09 | 1.09 | 92 | 1009.6 |
| 20260506212345 | 51 | 22 | 2.6 | 7.0 | 0.00 | 1.09 | 1.09 | 92 | 1009.5 |
| 20260506212205 | 51 | 45 | 1.7 | 4.3 | 0.00 | 1.09 | 1.09 | 92 | 1009.6 |
| 20260506212023 | 51 | 45 | 1.7 | 4.3 | 0.00 | 1.09 | 1.09 | 92 | 1009.5 |
| 20260506211838 | 51 | 22 | 1.7 | 4.3 | 0.00 | 1.09 | 1.09 | 92 | 1009.6 |
| 20260506211643 | 51 | 22 | 1.7 | 4.3 | 0.00 | 1.09 | 1.09 | 92 | 1009.6 |
| 20260506211444 | 51 | 68 | 1.7 | 4.3 | 0.00 | 1.09 | 1.09 | 92 | 1009.5 |
| 20260506211432 | 51 | 68 | 1.7 | 4.3 | 0.00 | 1.09 | 1.09 | 92 | 1009.6 |
| 20260506211245 | 51 | 68 | 1.7 | 5.2 | 0.00 | 1.09 | 1.09 | 92 | 1009.5 |
| 20260506211045 | 51 | 0 | 1.7 | 6.1 | 0.00 | 1.09 | 1.09 | 92 | 1009.4 |
| 20260506210855 | 51 | 22 | 1.7 | 6.1 | 0.00 | 1.09 | 1.09 | 92 | 1009.5 |
| 20260506210717 | 51 | 22 | 2.6 | 6.1 | 0.00 | 1.09 | 1.09 | 92 | 1009.5 |
| 20260506210530 | 51 | 0 | 1.7 | 3.5 | 0.00 | 1.09 | 1.09 | 91 | 1009.6 |
| 20260506210330 | 51 | 45 | 2.6 | 5.2 | 0.00 | 1.09 | 1.09 | 91 | 1009.5 |
| 20260506210137 | 51 | 45 | 3.5 | 7.0 | 0.00 | 1.09 | 1.09 | 91 | 1009.4 |
| 20260506205949 | 51 | 90 | 3.5 | 7.0 | 0.00 | 1.09 | 1.09 | 91 | 1009.4 |
| 20260506205750 | 51 | 338 | 3.5 | 6.1 | 0.00 | 1.09 | 1.09 | 91 | 1009.5 |
| 20260506205555 | 51 | 45 | 3.5 | 6.1 | 0.00 | 1.09 | 1.09 | 91 | 1009.4 |
| 20260506205533 | 51 | 68 | 3.5 | 6.1 | 0.00 | 1.09 | 1.09 | 91 | 1009.4 |
| 20260506205410 | 51 | 68 | 3.5 | 6.1 | 0.00 | 1.09 | 1.09 | 91 | 1009.5 |
| 20260506205210 | 51 | 338 | 3.5 | 5.2 | 0.00 | 1.09 | 1.09 | 91 | 1009.5 |
| 20260506205021 | 51 | 45 | 2.6 | 6.1 | 0.00 | 1.09 | 1.09 | 92 | 1009.4 |
| 20260506204835 | 51 | 68 | 3.5 | 6.1 | 0.00 | 1.09 | 1.09 | 91 | 1009.3 |
| 20260506204650 | 51 | 68 | 3.5 | 6.1 | 0.00 | 1.09 | 1.09 | 92 | 1009.3 |
| 20260506204450 | 51 | 22 | 2.6 | 5.2 | 0.00 | 1.09 | 1.09 | 92 | 1009.3 |
| 20260506204255 | 51 | 68 | 2.6 | 6.1 | 0.00 | 1.09 | 1.09 | 92 | 1009.2 |
| 20260506204115 | 51 | 22 | 3.5 | 6.1 | 0.00 | 1.09 | 1.09 | 92 | 1009.2 |
| 20260506203935 | 51 | 45 | 3.5 | 6.1 | 0.00 | 1.09 | 1.09 | 93 | 1009.2 |
| 20260506203823 | 51 | 22 | 3.5 | 7.8 | 0.00 | 1.09 | 1.09 | 93 | 1009.2 |
| 20260506203745 | 51 | 68 | 3.5 | 7.8 | 0.00 | 1.09 | 1.09 | 93 | 1009.2 |
| 20260506203603 | 51 | 90 | 3.5 | 7.8 | 0.00 | 1.09 | 1.09 | 93 | 1009.2 |
| 20260506203428 | 51 | 90 | 4.3 | 7.8 | 0.00 | 1.09 | 1.09 | 93 | 1009.2 |
| 20260506203231 | 51 | 68 | 3.5 | 6.1 | 0.00 | 1.09 | 1.09 | 94 | 1009.2 |
| 20260506203050 | 51 | 68 | 3.5 | 6.1 | 0.00 | 1.09 | 1.09 | 94 | 1009.3 |
| 20260506202848 | 51 | 45 | 3.5 | 6.1 | 0.00 | 1.09 | 1.09 | 94 | 1009.3 |
| 20260506202710 | 51 | 22 | 3.5 | 6.1 | 0.00 | 1.09 | 1.09 | 94 | 1009.3 |
| 20260506202512 | 51 | 22 | 2.6 | 6.1 | 0.00 | 1.09 | 1.09 | 94 | 1009.3 |
| 20260506202335 | 51 | 22 | 2.6 | 4.3 | 0.00 | 1.09 | 1.09 | 94 | 1009.2 |
| 20260506202242 | 51 | 22 | 1.7 | 5.2 | 0.00 | 1.09 | 1.09 | 94 | 1009.4 |
| 20260506202135 | 51 | 22 | 2.6 | 5.2 | 0.00 | 1.09 | 1.09 | 94 | 1009.3 |
| 20260506201950 | 51 | 315 | 1.7 | 5.2 | 0.00 | 1.09 | 1.09 | 94 | 1009.3 |
| 20260506201756 | 51 | 45 | 1.7 | 5.2 | 0.00 | 1.09 | 1.09 | 94 | 1009.3 |
| 20260506201612 | 51 | 45 | 1.7 | 4.3 | 0.00 | 1.09 | 1.09 | 94 | 1009.4 |
| 20260506201416 | 51 | 22 | 1.7 | 3.5 | 0.00 | 1.09 | 1.09 | 94 | 1009.4 |
| 20260506201225 | 51 | 0 | 1.7 | 6.1 | 0.00 | 1.09 | 1.09 | 94 | 1009.4 |
| 20260506201045 | 51 | 0 | 1.7 | 6.1 | 0.00 | 1.09 | 1.09 | 94 | 1009.3 |
| 20260506200857 | 51 | 0 | 1.7 | 6.1 | 0.00 | 1.09 | 1.09 | 94 | 1009.3 |
| 20260506200710 | 51 | 22 | 0.9 | 4.3 | 0.00 | 1.09 | 1.09 | 94 | 1009.3 |
| 20260506200513 | 51 | 22 | 1.7 | 4.3 | 0.00 | 1.09 | 1.09 | 94 | 1009.3 |
| 20260506200338 | 51 | 22 | 0.9 | 4.3 | 0.00 | 1.09 | 1.09 | 94 | 1009.3 |
| 20260506200145 | 51 | 22 | 1.7 | 5.2 | 0.00 | 1.09 | 1.09 | 94 | 1009.3 |
| 20260506200005 | 51 | 22 | 1.7 | 5.2 | 0.00 | 1.09 | 1.09 | 94 | 1009.3 |
| 20260506195830 | 51 | 22 | 1.7 | 5.2 | 0.00 | 1.09 | 1.09 | 94 | 1009.2 |
| 20260506195638 | 51 | 22 | 2.6 | 7.8 | 0.00 | 1.09 | 1.09 | 94 | 1009.3 |
| 20260506195438 | 51 | 22 | 2.6 | 7.8 | 0.00 | 1.09 | 1.09 | 94 | 1009.2 |
| 20260506195248 | 51 | 22 | 2.6 | 7.8 | 0.00 | 1.09 | 1.09 | 94 | 1009.2 |
| 20260506195110 | 51 | 22 | 2.6 | 7.8 | 0.00 | 1.09 | 1.09 | 94 | 1009.2 |
| 20260506194915 | 51 | 22 | 1.7 | 3.5 | 0.00 | 1.09 | 1.09 | 94 | 1009.2 |
| 20260506194725 | 51 | 22 | 1.7 | 3.5 | 0.00 | 1.09 | 1.09 | 94 | 1009.2 |
| 20260506194622 | 51 | 22 | 1.7 | 4.3 | 0.00 | 1.09 | 1.09 | 94 | 1009.2 |
| 20260506194548 | 51 | 22 | 1.7 | 4.3 | 0.00 | 1.09 | 1.09 | 94 | 1009.2 |
| 20260506194355 | 51 | 22 | 1.7 | 4.3 | 0.00 | 1.09 | 1.09 | 94 | 1009.1 |
| 20260506194205 | 51 | 22 | 1.7 | 3.5 | 0.00 | 1.09 | 1.09 | 93 | 1009.1 |
| 20260506194012 | 51 | 22 | 1.7 | 3.5 | 0.00 | 1.09 | 1.09 | 93 | 1009.1 |
| 20260506193818 | 51 | 22 | 1.7 | 3.5 | 0.00 | 1.09 | 1.09 | 93 | 1009.0 |
| 20260506193635 | 51 | 22 | 1.7 | 4.3 | 0.00 | 1.09 | 1.09 | 93 | 1009.1 |
| 20260506193450 | 51 | 22 | 0.9 | 4.3 | 0.00 | 1.09 | 1.09 | 93 | 1009.2 |
| 20260506193255 | 51 | 22 | 0.9 | 4.3 | 0.00 | 1.09 | 1.09 | 93 | 1009.1 |
| 20260506193115 | 51 | 45 | 0.9 | 1.7 | 0.00 | 1.09 | 1.09 | 93 | 1009.2 |
| 20260506192938 | 51 | 45 | 0.9 | 1.7 | 0.00 | 1.09 | 1.09 | 93 | 1009.1 |
| 20260506192924 | 51 | 45 | 1.7 | 1.7 | 0.00 | 1.09 | 1.09 | 93 | 1009.2 |
| 20260506192752 | 51 | 45 | 1.7 | 1.7 | 0.00 | 1.09 | 1.09 | 92 | 1009.2 |
| 20260506192558 | 51 | 45 | 1.7 | 7.0 | 0.00 | 1.09 | 1.09 | 93 | 1009.1 |
| 20260506192416 | 51 | 45 | 1.7 | 7.0 | 0.00 | 1.09 | 1.09 | 92 | 1009.1 |
| 20260506192235 | 51 | 45 | 1.7 | 7.0 | 0.00 | 1.09 | 1.09 | 92 | 1009.1 |
| 20260506192048 | 51 | 22 | 1.7 | 5.2 | 0.00 | 1.09 | 1.09 | 93 | 1009.1 |
| 20260506191855 | 51 | 22 | 1.7 | 5.2 | 0.00 | 1.09 | 1.09 | 92 | 1009.1 |
| 20260506191718 | 51 | 68 | 2.6 | 5.2 | 0.00 | 1.09 | 1.09 | 93 | 1009.1 |
| 20260506191525 | 51 | 22 | 1.7 | 5.2 | 0.00 | 1.09 | 1.09 | 93 | 1009.1 |
| 20260506191330 | 51 | 22 | 1.7 | 5.2 | 0.00 | 1.09 | 1.09 | 92 | 1009.0 |
| 20260506191130 | 51 | 45 | 1.7 | 5.2 | 0.00 | 1.09 | 1.09 | 92 | 1009.1 |
| 20260506191041 | 51 | 68 | 1.7 | 5.2 | 0.00 | 1.09 | 1.09 | 93 | 1009.0 |
| 20260506190935 | 51 | 45 | 1.7 | 3.5 | 0.00 | 1.09 | 1.09 | 93 | 1009.0 |
| 20260506190755 | 51 | 45 | 1.7 | 3.5 | 0.00 | 1.09 | 1.09 | 93 | 1009.0 |
| 20260506190615 | 51 | 45 | 1.7 | 4.3 | 0.00 | 1.09 | 1.09 | 93 | 1009.0 |
| 20260506190435 | 51 | 45 | 1.7 | 4.3 | 0.00 | 1.09 | 1.09 | 93 | 1009.0 |
| 20260506190235 | 51 | 45 | 1.7 | 4.3 | 0.00 | 1.09 | 1.09 | 93 | 1009.0 |
| 20260506190048 | 51 | 22 | 0.9 | 4.3 | 0.00 | 1.09 | 1.09 | 92 | 1009.0 |
| 20260506185858 | 51 | 22 | 0.9 | 4.3 | 0.00 | 1.09 | 1.09 | 92 | 1008.9 |
| 20260506185719 | 51 | 22 | 0.9 | 4.3 | 0.00 | 1.09 | 1.09 | 92 | 1008.9 |
| 20260506185541 | 51 | 22 | 0.9 | 4.3 | 0.00 | 1.09 | 1.09 | 92 | 1008.9 |
| 20260506185501 | 51 | 90 | 0.9 | 1.7 | 0.00 | 1.09 | 1.09 | 92 | 1008.9 |
| 20260506185405 | 51 | 90 | 0.9 | 1.7 | 0.00 | 1.09 | 1.09 | 92 | 1008.8 |
| 20260506185218 | 51 | 112 | 0.9 | 1.7 | 0.00 | 1.09 | 1.09 | 92 | 1008.8 |
| 20260506185037 | 51 | 22 | 1.7 | 7.0 | 0.00 | 1.09 | 1.09 | 92 | 1008.8 |
| 20260506184845 | 51 | 22 | 1.7 | 7.0 | 0.00 | 1.09 | 1.09 | 92 | 1008.7 |
| 20260506184710 | 51 | 22 | 1.7 | 3.5 | 0.00 | 1.09 | 1.09 | 92 | 1008.6 |
| 20260506184513 | 51 | 22 | 1.7 | 5.2 | 0.00 | 1.09 | 1.09 | 92 | 1008.6 |
| 20260506184325 | 51 | 68 | 1.7 | 5.2 | 0.00 | 1.09 | 1.09 | 93 | 1008.6 |
| 20260506184143 | 51 | 68 | 1.7 | 5.2 | 0.00 | 1.09 | 1.09 | 92 | 1008.5 |
| 20260506183955 | 51 | 22 | 1.7 | 3.5 | 0.00 | 1.09 | 1.09 | 92 | 1008.5 |
| 20260506183758 | 52 | 0 | 2.6 | 4.3 | 0.00 | 1.09 | 1.09 | 93 | 1008.5 |
| 20260506183637 | 52 | 45 | 2.6 | 4.3 | 0.00 | 1.09 | 1.09 | 92 | 1008.4 |
| 20260506183610 | 52 | 45 | 2.6 | 4.3 | 0.00 | 1.09 | 1.09 | 92 | 1008.3 |
| 20260506183425 | 52 | 68 | 2.6 | 5.2 | 0.00 | 1.09 | 1.09 | 92 | 1008.3 |
| 20260506183238 | 52 | 22 | 2.6 | 5.2 | 0.00 | 1.09 | 1.09 | 92 | 1008.3 |
| 20260506183055 | 52 | 45 | 2.6 | 5.2 | 0.00 | 1.09 | 1.09 | 92 | 1008.3 |
| 20260506182915 | 52 | 68 | 1.7 | 4.3 | 0.00 | 1.09 | 1.09 | 92 | 1008.4 |
| 20260506182738 | 52 | 22 | 1.7 | 3.5 | 0.00 | 1.09 | 1.09 | 92 | 1008.4 |
| 20260506182558 | 52 | 22 | 1.7 | 4.3 | 0.00 | 1.09 | 1.09 | 92 | 1008.4 |
| 20260506182405 | 52 | 45 | 1.7 | 5.2 | 0.00 | 1.09 | 1.09 | 91 | 1008.4 |
| 20260506182205 | 52 | 68 | 1.7 | 5.2 | 0.00 | 1.09 | 1.09 | 91 | 1008.4 |
| 20260506182010 | 52 | 45 | 1.7 | 5.2 | 0.00 | 1.09 | 1.09 | 91 | 1008.4 |
| 20260506181911 | 52 | 45 | 1.7 | 6.1 | 0.00 | 1.09 | 1.09 | 91 | 1008.3 |
| 20260506181815 | 53 | 68 | 1.7 | 6.1 | 0.00 | 1.09 | 1.09 | 90 | 1008.4 |
| 20260506181634 | 53 | 68 | 1.7 | 6.1 | 0.00 | 1.09 | 1.09 | 90 | 1008.5 |
| 20260506181448 | 53 | 0 | 1.7 | 4.3 | 0.00 | 1.09 | 1.09 | 90 | 1008.5 |
| 20260506181305 | 53 | 45 | 1.7 | 4.3 | 0.00 | 1.09 | 1.09 | 90 | 1008.5 |
| 20260506181125 | 53 | 45 | 1.7 | 4.3 | 0.00 | 1.09 | 1.09 | 91 | 1008.5 |
| 20260506180938 | 53 | 45 | 1.7 | 5.2 | 0.00 | 1.09 | 1.09 | 91 | 1008.5 |
| 20260506180755 | 53 | 45 | 1.7 | 5.2 | 0.00 | 1.09 | 1.09 | 91 | 1008.5 |
| 20260506180607 | 53 | 45 | 1.7 | 6.1 | 0.00 | 1.09 | 1.09 | 91 | 1008.5 |
| 20260506180415 | 53 | 68 | 2.6 | 6.1 | 0.00 | 1.09 | 1.09 | 91 | 1008.4 |
| 20260506180232 | 53 | 68 | 2.6 | 7.0 | 0.00 | 1.09 | 1.09 | 91 | 1008.3 |
| 20260506180035 | 53 | 45 | 2.6 | 7.0 | 0.00 | 1.09 | 1.09 | 92 | 1008.3 |
| 20260506175855 | 53 | 68 | 2.6 | 7.0 | 0.00 | 1.09 | 1.09 | 92 | 1008.4 |
| 20260506175712 | 53 | 338 | 2.6 | 6.1 | 0.00 | 1.09 | 1.09 | 92 | 1008.4 |
| 20260506175535 | 53 | 0 | 2.6 | 6.1 | 0.00 | 1.09 | 1.09 | 92 | 1008.4 |
| 20260506175345 | 53 | 0 | 3.5 | 6.1 | 0.00 | 1.09 | 1.09 | 91 | 1008.4 |
| 20260506175148 | 53 | 45 | 3.5 | 7.0 | 0.00 | 1.09 | 1.09 | 91 | 1008.3 |
| 20260506174958 | 53 | 112 | 3.5 | 7.0 | 0.00 | 1.09 | 1.09 | 92 | 1008.3 |
| 20260506174807 | 53 | 22 | 3.5 | 7.0 | 0.00 | 1.09 | 1.09 | 91 | 1008.2 |
| 20260506174625 | 53 | 22 | 3.5 | 5.2 | 0.00 | 1.09 | 1.09 | 91 | 1008.1 |
| 20260506174430 | 53 | 45 | 2.6 | 5.2 | 0.00 | 1.09 | 1.09 | 91 | 1008.2 |
| 20260506174250 | 53 | 22 | 2.6 | 4.3 | 0.00 | 1.09 | 1.09 | 91 | 1008.1 |
| 20260506174100 | 53 | 68 | 2.6 | 4.3 | 0.00 | 1.09 | 1.09 | 91 | 1008.1 |
| 20260506173924 | 54 | 22 | 1.7 | 4.3 | 0.00 | 1.09 | 1.09 | 91 | 1008.1 |
| 20260506173728 | 54 | 45 | 2.6 | 5.2 | 0.00 | 1.09 | 1.09 | 91 | 1008.1 |
| 20260506173550 | 54 | 45 | 2.6 | 5.2 | 0.00 | 1.09 | 1.09 | 91 | 1008.1 |
| 20260506173405 | 54 | 68 | 2.6 | 5.2 | 0.00 | 1.09 | 1.09 | 91 | 1008.1 |
| 20260506173218 | 54 | 45 | 2.6 | 5.2 | 0.00 | 1.09 | 1.09 | 91 | 1008.1 |
| 20260506173036 | 54 | 22 | 2.6 | 5.2 | 0.00 | 1.09 | 1.09 | 91 | 1008.0 |
| 20260506172855 | 54 | 68 | 3.5 | 5.2 | 0.00 | 1.09 | 1.09 | 91 | 1008.0 |
| 20260506172713 | 54 | 45 | 2.6 | 6.1 | 0.00 | 1.09 | 1.09 | 91 | 1007.9 |
| 20260506172534 | 54 | 45 | 2.6 | 6.1 | 0.00 | 1.09 | 1.09 | 91 | 1008.0 |
| 20260506172335 | 54 | 22 | 2.6 | 7.8 | 0.00 | 1.09 | 1.09 | 91 | 1008.0 |
| 20260506172145 | 54 | 68 | 2.6 | 7.8 | 0.00 | 1.09 | 1.09 | 92 | 1008.0 |
| 20260506172010 | 54 | 22 | 2.6 | 7.8 | 0.00 | 1.09 | 1.09 | 91 | 1008.0 |
| 20260506171820 | 54 | 45 | 2.6 | 4.3 | 0.00 | 1.09 | 1.09 | 91 | 1008.0 |
| 20260506171643 | 54 | 45 | 2.6 | 5.2 | 0.00 | 1.09 | 1.09 | 92 | 1008.0 |
| 20260506171505 | 54 | 0 | 2.6 | 5.2 | 0.00 | 1.09 | 1.09 | 92 | 1008.0 |
| 20260506171342 | 54 | 112 | 2.6 | 5.2 | 0.00 | 1.09 | 1.09 | 92 | 1008.0 |
| 20260506171324 | 54 | 22 | 2.6 | 5.2 | 0.00 | 1.09 | 1.09 | 92 | 1007.9 |
| 20260506171127 | 54 | 45 | 2.6 | 5.2 | 0.00 | 1.09 | 1.09 | 92 | 1008.0 |
| 20260506170938 | 54 | 68 | 1.7 | 4.3 | 0.00 | 1.09 | 1.09 | 91 | 1008.0 |
| 20260506170738 | 55 | 45 | 1.7 | 4.3 | 0.00 | 1.09 | 1.09 | 91 | 1008.0 |
| 20260506170555 | 55 | 22 | 1.7 | 4.3 | 0.00 | 1.09 | 1.09 | 91 | 1008.0 |
| 20260506170415 | 55 | 45 | 1.7 | 4.3 | 0.00 | 1.09 | 1.09 | 91 | 1007.9 |
| 20260506170218 | 55 | 45 | 1.7 | 4.3 | 0.00 | 1.09 | 1.09 | 91 | 1008.0 |
| 20260506170035 | 55 | 45 | 1.7 | 4.3 | 0.00 | 1.09 | 1.09 | 91 | 1008.0 |
| 20260506165850 | 55 | 22 | 1.7 | 3.5 | 0.00 | 1.09 | 1.09 | 91 | 1008.0 |
| 20260506165822 | 55 | 22 | 1.7 | 5.2 | 0.00 | 1.09 | 1.09 | 91 | 1007.9 |
| 20260506165710 | 55 | 90 | 1.7 | 5.2 | 0.00 | 1.09 | 1.09 | 91 | 1008.0 |
| 20260506165523 | 55 | 68 | 1.7 | 5.2 | 0.00 | 1.09 | 1.09 | 92 | 1007.9 |
| 20260506165325 | 55 | 68 | 1.7 | 5.2 | 0.00 | 1.09 | 1.09 | 91 | 1007.9 |
| 20260506165138 | 55 | 22 | 1.7 | 4.3 | 0.00 | 1.09 | 1.09 | 91 | 1007.9 |
| 20260506164938 | 55 | 45 | 1.7 | 7.0 | 0.00 | 1.09 | 1.09 | 91 | 1007.9 |
| 20260506164753 | 55 | 22 | 2.6 | 7.0 | 0.00 | 1.09 | 1.09 | 91 | 1007.8 |
| 20260506164605 | 56 | 45 | 2.6 | 5.2 | 0.00 | 1.09 | 1.09 | 90 | 1007.8 |
| 20260506164415 | 56 | 45 | 1.7 | 5.2 | 0.00 | 1.09 | 1.09 | 90 | 1007.9 |
| 20260506164213 | 56 | 45 | 1.7 | 5.2 | 0.00 | 1.09 | 1.09 | 90 | 1007.8 |
| 20260506164038 | 56 | 45 | 1.7 | 7.0 | 0.00 | 1.09 | 1.09 | 89 | 1007.9 |
| 20260506163958 | 56 | 68 | 1.7 | 7.0 | 0.00 | 1.09 | 1.09 | 89 | 1007.8 |
| 20260506163838 | 56 | 22 | 1.7 | 7.0 | 0.00 | 1.09 | 1.09 | 89 | 1007.8 |
| 20260506163645 | 56 | 45 | 1.7 | 7.0 | 0.00 | 1.09 | 1.09 | 88 | 1007.8 |
| 20260506163505 | 56 | 45 | 1.7 | 3.5 | 0.00 | 1.09 | 1.09 | 89 | 1007.7 |
| 20260506163325 | 56 | 22 | 1.7 | 4.3 | 0.00 | 1.09 | 1.09 | 89 | 1007.7 |
| 20260506163125 | 56 | 22 | 1.7 | 4.3 | 0.00 | 1.09 | 1.09 | 89 | 1007.8 |
| 20260506162945 | 56 | 22 | 1.7 | 4.3 | 0.00 | 1.09 | 1.09 | 88 | 1007.7 |
| 20260506162745 | 56 | 45 | 1.7 | 4.3 | 0.00 | 1.09 | 1.09 | 88 | 1007.8 |
| 20260506162605 | 56 | 22 | 1.7 | 4.3 | 0.00 | 1.09 | 1.09 | 89 | 1007.7 |
| 20260506162407 | 56 | 45 | 1.7 | 4.3 | 0.00 | 1.09 | 1.09 | 89 | 1007.7 |
| 20260506162210 | 56 | 22 | 1.7 | 4.3 | 0.00 | 1.09 | 1.09 | 89 | 1007.8 |
| 20260506162023 | 56 | 22 | 1.7 | 4.3 | 0.00 | 1.09 | 1.09 | 89 | 1007.7 |
| 20260506161830 | 56 | 22 | 1.7 | 4.3 | 0.00 | 1.09 | 1.09 | 88 | 1007.7 |
| 20260506161630 | 56 | 22 | 1.7 | 4.3 | 0.00 | 1.09 | 1.09 | 87 | 1007.7 |
| 20260506161435 | 56 | 22 | 1.7 | 6.1 | 0.00 | 1.09 | 1.09 | 87 | 1007.8 |
| 20260506161105 | 56 | 68 | 1.7 | 6.1 | 0.00 | 1.09 | 1.09 | 87 | 1007.9 |
| 20260506160903 | 56 | 68 | 1.7 | 4.3 | 0.00 | 1.09 | 1.09 | 87 | 1008.0 |
| 20260506160704 | 56 | 22 | 2.6 | 5.2 | 0.00 | 1.09 | 1.09 | 87 | 1007.9 |
| 20260506160611 | 56 | 22 | 2.6 | 5.2 | 0.00 | 1.09 | 1.09 | 87 | 1008.0 |
| 20260506160518 | 56 | 22 | 2.6 | 5.2 | 0.00 | 1.09 | 1.09 | 86 | 1007.9 |
| 20260506160326 | 56 | 90 | 2.6 | 6.1 | 0.00 | 1.09 | 1.09 | 86 | 1007.9 |
| 20260506160140 | 57 | 68 | 2.6 | 6.1 | 0.00 | 1.09 | 1.09 | 87 | 1007.9 |
| 20260506155955 | 57 | 22 | 2.6 | 7.0 | 0.00 | 1.09 | 1.09 | 87 | 1008.0 |
| 20260506155800 | 56 | 0 | 2.6 | 7.0 | 0.00 | 1.09 | 1.09 | 87 | 1008.0 |
| 20260506155612 | 56 | 45 | 1.7 | 6.1 | 0.00 | 1.09 | 1.09 | 87 | 1008.0 |
| 20260506155427 | 56 | 22 | 1.7 | 5.2 | 0.00 | 1.09 | 1.09 | 87 | 1008.0 |
| 20260506155245 | 56 | 45 | 2.6 | 5.2 | 0.00 | 1.09 | 1.09 | 88 | 1008.0 |
| 20260506155050 | 56 | 45 | 2.6 | 5.2 | 0.00 | 1.09 | 1.09 | 88 | 1008.0 |
| 20260506154901 | 56 | 338 | 2.6 | 4.3 | 0.00 | 1.09 | 1.09 | 88 | 1008.1 |
| 20260506154744 | 56 | 22 | 1.7 | 4.3 | 0.00 | 1.09 | 1.09 | 88 | 1008.0 |
| 20260506154713 | 56 | 22 | 1.7 | 4.3 | 0.00 | 1.09 | 1.09 | 89 | 1008.1 |
| 20260506154535 | 56 | 22 | 2.6 | 6.1 | 0.00 | 1.09 | 1.09 | 89 | 1008.1 |
| 20260506154335 | 56 | 22 | 2.6 | 6.1 | 0.00 | 1.09 | 1.09 | 89 | 1008.0 |
| 20260506154145 | 57 | 68 | 2.6 | 6.1 | 0.00 | 1.09 | 1.09 | 89 | 1008.0 |
| 20260506154008 | 57 | 45 | 1.7 | 5.2 | 0.00 | 1.09 | 1.09 | 90 | 1008.0 |
| 20260506153830 | 57 | 68 | 1.7 | 5.2 | 0.00 | 1.09 | 1.09 | 89 | 1008.0 |
| 20260506153650 | 57 | 22 | 1.7 | 6.1 | 0.00 | 1.09 | 1.09 | 88 | 1008.0 |
| 20260506153458 | 57 | 45 | 1.7 | 6.1 | 0.00 | 1.09 | 1.09 | 88 | 1007.9 |